Time,TemperatureF,DewpointF,PressureIn,WindDirection,WindDirectionDegrees,WindSpeedMPH,WindSpeedGustMPH,Humidity,HourlyPrecipIn,Conditions,Clouds,dailyrainin,SoftwareType,DateUTC
2013-08-29 00:01:00,72.5,70.7,29.82,ENE,70,0.0,4.0,94,0.00,,,0.00,VWS V14.01,2013-08-29 04:01:00,
2013-08-29 00:02:00,72.5,70.7,29.82,ENE,69,0.0,4.0,94,0.00,,,0.00,VWS V14.01,2013-08-29 04:02:00,
2013-08-29 00:03:00,72.5,70.7,29.82,ENE,69,0.0,4.0,94,0.00,,,0.00,VWS V14.01,2013-08-29 04:03:00,
2013-08-29 00:04:00,72.5,70.7,29.82,ENE,70,0.0,4.0,94,0.00,,,0.00,VWS V14.01,2013-08-29 04:04:00,
2013-08-29 00:05:00,72.5,70.7,29.82,ENE,69,0.0,4.0,94,0.00,,,0.00,VWS V14.01,2013-08-29 04:05:00,
2013-08-29 00:07:00,72.5,70.7,29.82,ENE,70,0.0,0.0,94,0.00,,,0.00,VWS V14.01,2013-08-29 04:07:00,
2013-08-29 00:10:00,72.3,70.5,29.82,ENE,69,0.0,0.0,94,0.00,,,0.00,VWS V14.01,2013-08-29 04:10:00,
2013-08-29 00:11:00,72.3,70.5,29.82,ENE,69,0.0,0.0,94,0.00,,,0.00,VWS V14.01,2013-08-29 04:11:00,
2013-08-29 00:16:00,72.3,70.5,29.82,ENE,69,0.0,0.0,94,0.00,,,0.00,VWS V14.01,2013-08-29 04:16:00,
2013-08-29 00:17:00,72.1,70.6,29.82,ENE,69,0.0,0.0,95,0.00,,,0.00,VWS V14.01,2013-08-29 04:17:00,
2013-08-29 00:18:00,72.1,70.6,29.82,ENE,69,0.0,0.0,95,0.00,,,0.00,VWS V14.01,2013-08-29 04:18:00,
2013-08-29 00:20:00,72.1,70.6,29.82,ENE,69,0.0,0.0,95,0.00,,,0.00,VWS V14.01,2013-08-29 04:20:00,
2013-08-29 00:22:00,72.1,70.6,29.82,ENE,69,0.0,0.0,95,0.00,,,0.00,VWS V14.01,2013-08-29 04:22:00,
2013-08-29 00:23:00,72.1,70.6,29.82,ENE,70,0.0,0.0,95,0.00,,,0.00,VWS V14.01,2013-08-29 04:23:00,
2013-08-29 00:26:00,72.0,70.5,29.82,ENE,69,0.0,0.0,95,0.00,,,0.00,VWS V14.01,2013-08-29 04:26:00,
2013-08-29 00:27:00,72.0,70.5,29.82,ENE,70,0.0,0.0,95,0.00,,,0.00,VWS V14.01,2013-08-29 04:27:00,
2013-08-29 00:29:00,72.0,70.5,29.82,ENE,69,0.0,0.0,95,0.00,,,0.00,VWS V14.01,2013-08-29 04:29:00,
2013-08-29 00:30:00,72.0,70.5,29.82,ENE,69,0.0,0.0,95,0.00,,,0.00,VWS V14.01,2013-08-29 04:30:00,
2013-08-29 00:32:00,72.0,70.5,29.82,ENE,70,0.0,0.0,95,0.00,,,0.00,VWS V14.01,2013-08-29 04:32:00,
2013-08-29 00:34:00,72.0,70.5,29.82,ENE,69,0.0,0.0,95,0.00,,,0.00,VWS V14.01,2013-08-29 04:34:00,
2013-08-29 00:36:00,72.0,70.5,29.82,ENE,69,5.0,5.0,95,0.00,,,0.00,VWS V14.01,2013-08-29 04:36:00,
2013-08-29 00:39:00,72.0,70.5,29.82,NE,50,4.0,7.0,95,0.00,,,0.00,VWS V14.01,2013-08-29 04:39:00,
2013-08-29 00:40:00,72.0,70.5,29.82,NE,51,4.0,7.0,95,0.00,,,0.00,VWS V14.01,2013-08-29 04:40:00,
2013-08-29 00:41:00,72.1,70.6,29.82,NE,49,3.0,7.0,95,0.00,,,0.00,VWS V14.01,2013-08-29 04:41:00,
2013-08-29 00:42:00,72.1,70.6,29.82,NE,50,0.0,7.0,95,0.00,,,0.00,VWS V14.01,2013-08-29 04:42:00,
2013-08-29 00:46:00,72.3,70.8,29.82,NE,49,5.0,7.0,95,0.00,,,0.00,VWS V14.01,2013-08-29 04:46:00,
2013-08-29 00:47:00,72.3,70.8,29.82,NE,49,3.0,7.0,95,0.00,,,0.00,VWS V14.01,2013-08-29 04:47:00,
2013-08-29 00:48:00,72.3,70.8,29.82,NE,49,0.0,7.0,95,0.00,,,0.00,VWS V14.01,2013-08-29 04:48:00,
2013-08-29 00:49:00,72.3,70.8,29.82,NE,48,0.0,7.0,95,0.00,,,0.00,VWS V14.01,2013-08-29 04:49:00,
2013-08-29 00:51:00,72.5,71.0,29.83,NE,48,0.0,7.0,95,0.00,,,0.00,VWS V14.01,2013-08-29 04:51:00,
2013-08-29 00:53:00,72.5,71.0,29.83,NE,49,0.0,7.0,95,0.00,,,0.00,VWS V14.01,2013-08-29 04:53:00,
2013-08-29 00:54:00,72.5,71.0,29.83,NE,48,0.0,7.0,95,0.00,,,0.00,VWS V14.01,2013-08-29 04:54:00,
2013-08-29 00:57:00,72.5,71.0,29.83,NE,49,0.0,7.0,95,0.00,,,0.00,VWS V14.01,2013-08-29 04:57:00,
2013-08-29 01:00:00,72.5,71.0,29.83,NE,49,0.0,7.0,95,0.00,,,0.00,VWS V14.01,2013-08-29 05:00:00,
2013-08-29 01:05:00,72.5,71.0,29.83,NE,48,5.0,7.0,95,0.00,,,0.00,VWS V14.01,2013-08-29 05:05:00,
2013-08-29 01:06:00,72.5,71.0,29.83,NE,48,6.0,6.0,95,0.00,,,0.00,VWS V14.01,2013-08-29 05:06:00,
2013-08-29 01:07:00,72.5,71.0,29.83,NE,48,0.0,6.0,95,0.00,,,0.00,VWS V14.01,2013-08-29 05:07:00,
2013-08-29 01:12:00,72.5,71.0,29.83,NE,47,3.0,6.0,95,0.00,,,0.00,VWS V14.01,2013-08-29 05:12:00,
2013-08-29 01:13:00,72.5,71.0,29.83,NE,47,0.0,6.0,95,0.00,,,0.00,VWS V14.01,2013-08-29 05:13:00,
2013-08-29 01:14:00,72.5,71.0,29.83,NE,48,0.0,6.0,95,0.00,,,0.00,VWS V14.01,2013-08-29 05:14:00,
2013-08-29 01:16:00,72.5,71.0,29.83,NE,48,0.0,6.0,95,0.00,,,0.00,VWS V14.01,2013-08-29 05:16:00,
2013-08-29 01:18:00,72.5,71.0,29.83,NE,47,0.0,6.0,95,0.00,,,0.00,VWS V14.01,2013-08-29 05:18:00,
2013-08-29 01:20:00,72.5,71.0,29.83,NE,47,0.0,6.0,95,0.00,,,0.00,VWS V14.01,2013-08-29 05:20:00,
2013-08-29 01:21:00,72.5,71.0,29.83,NE,48,0.0,6.0,95,0.00,,,0.00,VWS V14.01,2013-08-29 05:21:00,
2013-08-29 01:22:00,72.5,71.0,29.83,NE,47,5.0,6.0,95,0.00,,,0.00,VWS V14.01,2013-08-29 05:22:00,
2013-08-29 01:23:00,72.5,71.0,29.83,NE,48,3.0,6.0,95,0.00,,,0.00,VWS V14.01,2013-08-29 05:23:00,
2013-08-29 01:28:00,72.5,71.0,29.83,NE,46,0.0,7.0,95,0.00,,,0.00,VWS V14.01,2013-08-29 05:28:00,
2013-08-29 01:29:00,72.5,71.0,29.83,NNE,33,5.0,8.0,95,0.00,,,0.00,VWS V14.01,2013-08-29 05:29:00,
2013-08-29 01:30:00,72.5,71.0,29.83,NE,46,3.0,8.0,95,0.00,,,0.00,VWS V14.01,2013-08-29 05:30:00,
2013-08-29 01:33:00,72.7,71.5,29.83,NE,44,4.0,8.0,96,0.00,,,0.00,VWS V14.01,2013-08-29 05:33:00,
2013-08-29 01:34:00,72.7,71.5,29.83,NE,43,0.0,8.0,96,0.00,,,0.00,VWS V14.01,2013-08-29 05:34:00,
2013-08-29 01:35:00,72.7,71.5,29.83,NE,49,5.0,8.0,96,0.00,,,0.00,VWS V14.01,2013-08-29 05:35:00,
2013-08-29 01:36:00,72.7,71.5,29.83,NE,49,2.0,5.0,96,0.00,,,0.00,VWS V14.01,2013-08-29 05:36:00,
2013-08-29 01:37:00,72.7,71.5,29.83,NE,48,4.0,6.0,96,0.00,,,0.00,VWS V14.01,2013-08-29 05:37:00,
2013-08-29 01:42:00,72.7,71.5,29.83,NE,34,1.0,9.0,96,0.00,,,0.00,VWS V14.01,2013-08-29 05:42:00,
2013-08-29 01:44:00,72.7,71.5,29.83,NE,36,3.0,9.0,96,0.00,,,0.00,VWS V14.01,2013-08-29 05:44:00,
2013-08-29 01:47:00,72.7,71.5,29.83,NE,45,4.0,9.0,96,0.00,,,0.00,VWS V14.01,2013-08-29 05:47:00,
2013-08-29 01:49:00,72.7,71.5,29.83,NE,43,5.0,9.0,96,0.00,,,0.00,VWS V14.01,2013-08-29 05:49:00,
2013-08-29 01:50:00,72.5,71.3,29.83,NE,44,2.0,9.0,96,0.00,,,0.00,VWS V14.01,2013-08-29 05:50:00,
2013-08-29 01:52:00,72.5,71.3,29.83,NE,38,2.0,9.0,96,0.00,,,0.00,VWS V14.01,2013-08-29 05:52:00,
2013-08-29 01:53:00,72.5,71.3,29.83,NE,34,5.0,9.0,96,0.00,,,0.00,VWS V14.01,2013-08-29 05:53:00,
2013-08-29 01:55:00,72.5,71.3,29.83,ENE,66,5.0,9.0,96,0.00,,,0.00,VWS V14.01,2013-08-29 05:55:00,
2013-08-29 01:58:00,72.7,71.5,29.83,NE,39,4.0,9.0,96,0.00,,,0.00,VWS V14.01,2013-08-29 05:58:00,
2013-08-29 01:59:00,72.7,71.5,29.83,NE,36,6.0,9.0,96,0.00,,,0.00,VWS V14.01,2013-08-29 05:59:00,
2013-08-29 02:03:00,72.7,71.5,29.83,NNE,33,6.0,9.0,96,0.00,,,0.00,VWS V14.01,2013-08-29 06:03:00,
2013-08-29 02:04:00,72.7,71.5,29.83,NNE,33,3.0,9.0,96,0.00,,,0.00,VWS V14.01,2013-08-29 06:04:00,
2013-08-29 02:05:00,72.7,71.5,29.83,NNE,33,0.0,0.0,96,0.00,,,0.00,VWS V14.01,2013-08-29 06:05:00,
2013-08-29 02:08:00,72.7,71.5,29.83,NE,43,4.0,6.0,96,0.00,,,0.00,VWS V14.01,2013-08-29 06:08:00,
2013-08-29 02:10:00,72.7,71.5,29.83,NE,38,7.0,7.0,96,0.00,,,0.00,VWS V14.01,2013-08-29 06:10:00,
2013-08-29 02:11:00,72.7,71.5,29.83,NE,38,2.0,7.0,96,0.00,,,0.00,VWS V14.01,2013-08-29 06:11:00,
2013-08-29 02:16:00,72.7,71.5,29.83,NE,44,7.0,7.0,96,0.00,,,0.00,VWS V14.01,2013-08-29 06:16:00,
2013-08-29 02:17:00,72.7,71.5,29.83,NE,44,2.0,7.0,96,0.00,,,0.00,VWS V14.01,2013-08-29 06:17:00,
2013-08-29 02:22:00,72.7,71.5,29.83,NE,41,6.0,7.0,96,0.00,,,0.00,VWS V14.01,2013-08-29 06:22:00,
2013-08-29 02:23:00,72.7,71.5,29.83,NE,44,5.0,7.0,96,0.00,,,0.00,VWS V14.01,2013-08-29 06:23:00,
2013-08-29 02:24:00,72.7,71.5,29.83,NE,39,6.0,7.0,96,0.00,,,0.00,VWS V14.01,2013-08-29 06:24:00,
2013-08-29 02:25:00,72.7,71.5,29.83,NE,37,7.0,7.0,96,0.00,,,0.00,VWS V14.01,2013-08-29 06:25:00,
2013-08-29 02:26:00,72.7,71.5,29.83,NNE,33,6.0,8.0,96,0.00,,,0.00,VWS V14.01,2013-08-29 06:26:00,
2013-08-29 02:28:00,72.7,71.5,29.83,NNE,33,0.0,8.0,96,0.00,,,0.00,VWS V14.01,2013-08-29 06:28:00,
2013-08-29 02:30:00,72.7,71.5,29.83,NE,35,6.0,8.0,96,0.00,,,0.00,VWS V14.01,2013-08-29 06:30:00,
2013-08-29 02:32:00,72.7,71.5,29.83,NE,34,7.0,9.0,96,0.00,,,0.00,VWS V14.01,2013-08-29 06:32:00,
2013-08-29 02:33:00,72.7,71.5,29.83,NE,42,9.0,9.0,96,0.00,,,0.00,VWS V14.01,2013-08-29 06:33:00,
2013-08-29 02:34:00,72.8,71.6,29.83,NE,44,3.0,9.0,96,0.00,,,0.00,VWS V14.01,2013-08-29 06:34:00,
2013-08-29 02:35:00,72.8,71.6,29.83,NE,44,3.0,9.0,96,0.00,,,0.00,VWS V14.01,2013-08-29 06:35:00,
2013-08-29 02:39:00,72.8,71.6,29.83,NE,44,5.0,8.0,96,0.00,,,0.00,VWS V14.01,2013-08-29 06:39:00,
2013-08-29 02:40:00,72.8,71.6,29.83,NE,47,3.0,10.0,96,0.00,,,0.00,VWS V14.01,2013-08-29 06:40:00,
2013-08-29 02:41:00,72.8,71.6,29.83,NE,55,5.0,10.0,96,0.00,,,0.00,VWS V14.01,2013-08-29 06:41:00,
2013-08-29 02:42:00,72.8,71.6,29.83,NE,47,4.0,10.0,96,0.00,,,0.00,VWS V14.01,2013-08-29 06:42:00,
2013-08-29 02:46:00,72.8,71.6,29.83,ENE,58,7.0,11.0,96,0.00,,,0.00,VWS V14.01,2013-08-29 06:46:00,
2013-08-29 02:47:00,72.8,71.6,29.83,ENE,74,3.0,11.0,96,0.00,,,0.00,VWS V14.01,2013-08-29 06:47:00,
2013-08-29 02:49:00,72.8,71.6,29.84,NE,55,5.0,11.0,96,0.00,,,0.00,VWS V14.01,2013-08-29 06:49:00,
2013-08-29 02:50:00,72.8,71.6,29.84,NNE,23,6.0,11.0,96,0.00,,,0.00,VWS V14.01,2013-08-29 06:50:00,
2013-08-29 02:54:00,72.8,71.6,29.84,NE,42,6.0,11.0,96,0.00,,,0.00,VWS V14.01,2013-08-29 06:54:00,
2013-08-29 02:55:00,72.7,71.5,29.84,NE,51,7.0,11.0,96,0.00,,,0.00,VWS V14.01,2013-08-29 06:55:00,
2013-08-29 02:56:00,72.7,71.5,29.84,NE,50,4.0,11.0,96,0.00,,,0.00,VWS V14.01,2013-08-29 06:56:00,
2013-08-29 03:01:00,72.7,71.5,29.84,NE,45,3.0,12.0,96,0.00,,,0.00,VWS V14.01,2013-08-29 07:01:00,
2013-08-29 03:02:00,72.7,71.5,29.84,ENE,57,6.0,12.0,96,0.00,,,0.00,VWS V14.01,2013-08-29 07:02:00,
2013-08-29 03:05:00,72.5,71.3,29.84,NNE,19,4.0,12.0,96,0.00,,,0.00,VWS V14.01,2013-08-29 07:05:00,
2013-08-29 03:07:00,72.5,71.3,29.84,ENE,65,4.0,11.0,96,0.00,,,0.00,VWS V14.01,2013-08-29 07:07:00,
2013-08-29 03:08:00,72.5,71.3,29.84,NE,49,4.0,11.0,96,0.00,,,0.00,VWS V14.01,2013-08-29 07:08:00,
2013-08-29 03:10:00,72.5,71.3,29.84,NE,47,7.0,11.0,96,0.00,,,0.00,VWS V14.01,2013-08-29 07:10:00,
2013-08-29 03:12:00,72.3,71.1,29.84,ENE,60,8.0,11.0,96,0.00,,,0.00,VWS V14.01,2013-08-29 07:12:00,
2013-08-29 03:13:00,72.3,71.1,29.84,ENE,65,1.0,11.0,96,0.00,,,0.00,VWS V14.01,2013-08-29 07:13:00,
2013-08-29 03:14:00,72.3,71.1,29.84,NE,52,6.0,11.0,96,0.00,,,0.00,VWS V14.01,2013-08-29 07:14:00,
2013-08-29 03:15:00,72.1,70.9,29.84,NE,44,5.0,11.0,96,0.00,,,0.00,VWS V14.01,2013-08-29 07:15:00,
2013-08-29 03:17:00,72.1,70.9,29.84,NE,56,7.0,13.0,96,0.00,,,0.00,VWS V14.01,2013-08-29 07:17:00,
2013-08-29 03:19:00,72.1,70.9,29.84,ENE,59,5.0,13.0,96,0.00,,,0.00,VWS V14.01,2013-08-29 07:19:00,
2013-08-29 03:22:00,72.1,70.9,29.85,ENE,59,6.0,13.0,96,0.00,,,0.00,VWS V14.01,2013-08-29 07:22:00,
2013-08-29 03:23:00,72.1,70.9,29.85,ENE,65,4.0,13.0,96,0.00,,,0.00,VWS V14.01,2013-08-29 07:23:00,
2013-08-29 03:25:00,72.1,70.9,29.85,ENE,68,2.0,13.0,96,0.00,,,0.00,VWS V14.01,2013-08-29 07:25:00,
2013-08-29 03:26:00,72.1,70.9,29.85,NE,34,7.0,13.0,96,0.00,,,0.00,VWS V14.01,2013-08-29 07:26:00,
2013-08-29 03:27:00,72.1,70.9,29.85,ENE,67,6.0,13.0,96,0.00,,,0.00,VWS V14.01,2013-08-29 07:27:00,
2013-08-29 03:30:00,72.1,70.9,29.85,NE,56,5.0,13.0,96,0.00,,,0.00,VWS V14.01,2013-08-29 07:30:00,
2013-08-29 03:31:00,72.1,70.9,29.85,NE,55,4.0,13.0,96,0.00,,,0.00,VWS V14.01,2013-08-29 07:31:00,
2013-08-29 03:32:00,72.1,70.9,29.85,NE,52,5.0,13.0,96,0.00,,,0.00,VWS V14.01,2013-08-29 07:32:00,
2013-08-29 03:33:00,72.1,70.9,29.85,NE,50,5.0,13.0,96,0.00,,,0.00,VWS V14.01,2013-08-29 07:33:00,
2013-08-29 03:34:00,72.1,70.9,29.85,ENE,67,3.0,13.0,96,0.00,,,0.00,VWS V14.01,2013-08-29 07:34:00,
2013-08-29 03:37:00,72.1,70.9,29.85,ENE,74,2.0,8.0,96,0.00,,,0.00,VWS V14.01,2013-08-29 07:37:00,
2013-08-29 03:39:00,72.1,70.9,29.85,NE,53,4.0,11.0,96,0.00,,,0.00,VWS V14.01,2013-08-29 07:39:00,
2013-08-29 03:40:00,72.1,71.2,29.85,NE,44,9.0,13.0,97,0.00,,,0.00,VWS V14.01,2013-08-29 07:40:00,
2013-08-29 03:41:00,72.1,70.9,29.85,ENE,57,11.0,13.0,96,0.00,,,0.00,VWS V14.01,2013-08-29 07:41:00,
2013-08-29 03:46:00,72.1,70.9,29.85,East,84,17.0,17.0,96,0.00,,,0.00,VWS V14.01,2013-08-29 07:46:00,
2013-08-29 03:47:00,72.1,70.9,29.85,NE,49,7.0,17.0,96,0.00,,,0.00,VWS V14.01,2013-08-29 07:47:00,
2013-08-29 03:48:00,72.0,70.8,29.85,ENE,69,11.0,17.0,96,0.00,,,0.00,VWS V14.01,2013-08-29 07:48:00,
2013-08-29 03:51:00,72.0,70.8,29.85,ENE,77,0.0,17.0,96,0.00,,,0.00,VWS V14.01,2013-08-29 07:51:00,
2013-08-29 03:52:00,72.0,70.8,29.85,East,79,11.0,17.0,96,0.00,,,0.00,VWS V14.01,2013-08-29 07:52:00,
2013-08-29 03:53:00,72.0,70.8,29.85,ENE,67,6.0,17.0,96,0.00,,,0.00,VWS V14.01,2013-08-29 07:53:00,
2013-08-29 03:54:00,71.8,70.6,29.85,ENE,77,6.0,17.0,96,0.00,,,0.00,VWS V14.01,2013-08-29 07:54:00,
2013-08-29 03:56:00,71.8,70.6,29.85,East,88,7.0,17.0,96,0.00,,,0.00,VWS V14.01,2013-08-29 07:56:00,
2013-08-29 03:59:00,71.8,70.9,29.85,ENE,64,4.0,17.0,97,0.00,,,0.00,VWS V14.01,2013-08-29 07:59:00,
2013-08-29 04:00:00,71.8,70.9,29.85,East,84,10.0,17.0,97,0.00,,,0.00,VWS V14.01,2013-08-29 08:00:00,
2013-08-29 04:01:00,71.8,70.9,29.85,East,81,5.0,17.0,97,0.00,,,0.00,VWS V14.01,2013-08-29 08:01:00,
2013-08-29 04:02:00,71.8,70.9,29.85,ENE,70,6.0,17.0,97,0.00,,,0.00,VWS V14.01,2013-08-29 08:02:00,
2013-08-29 04:04:00,71.8,70.9,29.85,ENE,61,5.0,17.0,97,0.00,,,0.00,VWS V14.01,2013-08-29 08:04:00,
2013-08-29 04:05:00,71.8,70.9,29.85,ENE,57,4.0,17.0,97,0.00,,,0.00,VWS V14.01,2013-08-29 08:05:00,
2013-08-29 04:07:00,71.8,70.9,29.85,ENE,57,11.0,13.0,97,0.00,,,0.00,VWS V14.01,2013-08-29 08:07:00,
2013-08-29 04:11:00,72.0,71.1,29.85,ENE,70,6.0,13.0,97,0.00,,,0.00,VWS V14.01,2013-08-29 08:11:00,
2013-08-29 04:12:00,72.0,71.1,29.85,ENE,67,5.0,13.0,97,0.00,,,0.00,VWS V14.01,2013-08-29 08:12:00,
2013-08-29 04:16:00,72.0,71.1,29.85,NE,49,5.0,15.0,97,0.00,,,0.00,VWS V14.01,2013-08-29 08:16:00,
2013-08-29 04:17:00,72.0,71.1,29.85,ENE,67,6.0,15.0,97,0.00,,,0.00,VWS V14.01,2013-08-29 08:17:00,
2013-08-29 04:18:00,72.0,71.1,29.85,East,88,7.0,15.0,97,0.00,,,0.00,VWS V14.01,2013-08-29 08:18:00,
2013-08-29 04:19:00,72.0,71.1,29.85,ENE,60,5.0,15.0,97,0.00,,,0.00,VWS V14.01,2013-08-29 08:19:00,
2013-08-29 04:20:00,72.0,71.1,29.85,East,80,7.0,15.0,97,0.00,,,0.00,VWS V14.01,2013-08-29 08:20:00,
2013-08-29 04:21:00,72.0,71.1,29.85,ENE,65,4.0,15.0,97,0.00,,,0.00,VWS V14.01,2013-08-29 08:21:00,
2013-08-29 04:24:00,71.8,70.9,29.85,ENE,73,1.0,15.0,97,0.00,,,0.00,VWS V14.01,2013-08-29 08:24:00,
2013-08-29 04:25:00,71.8,70.9,29.85,NE,42,8.0,15.0,97,0.00,,,0.00,VWS V14.01,2013-08-29 08:25:00,
2013-08-29 04:26:00,71.8,70.9,29.85,East,83,6.0,15.0,97,0.00,,,0.00,VWS V14.01,2013-08-29 08:26:00,
2013-08-29 04:28:00,71.8,70.9,29.85,East,80,4.0,15.0,97,0.00,,,0.00,VWS V14.01,2013-08-29 08:28:00,
2013-08-29 04:31:00,71.8,70.9,29.85,East,84,0.0,15.0,97,0.00,,,0.00,VWS V14.01,2013-08-29 08:31:00,
2013-08-29 04:33:00,71.6,70.7,29.85,East,86,2.0,15.0,97,0.00,,,0.00,VWS V14.01,2013-08-29 08:33:00,
2013-08-29 04:35:00,71.6,70.7,29.85,East,94,6.0,15.0,97,0.00,,,0.00,VWS V14.01,2013-08-29 08:35:00,
2013-08-29 04:38:00,71.5,70.6,29.85,ESE,102,6.0,11.0,97,0.00,,,0.00,VWS V14.01,2013-08-29 08:38:00,
2013-08-29 04:39:00,71.5,70.6,29.85,ESE,114,4.0,11.0,97,0.00,,,0.00,VWS V14.01,2013-08-29 08:39:00,
2013-08-29 04:42:00,71.6,70.7,29.85,ESE,102,6.0,11.0,97,0.00,,,0.00,VWS V14.01,2013-08-29 08:42:00,
2013-08-29 04:43:00,71.6,70.7,29.85,ESE,106,4.0,11.0,97,0.00,,,0.00,VWS V14.01,2013-08-29 08:43:00,
2013-08-29 04:44:00,71.6,70.7,29.85,ESE,120,5.0,11.0,97,0.00,,,0.00,VWS V14.01,2013-08-29 08:44:00,
2013-08-29 04:45:00,71.6,70.7,29.85,East,86,7.0,11.0,97,0.00,,,0.00,VWS V14.01,2013-08-29 08:45:00,
2013-08-29 04:47:00,71.8,70.9,29.85,SE,126,5.0,12.0,97,0.00,,,0.00,VWS V14.01,2013-08-29 08:47:00,
2013-08-29 04:50:00,71.8,70.9,29.86,East,88,4.0,12.0,97,0.00,,,0.00,VWS V14.01,2013-08-29 08:50:00,
2013-08-29 04:51:00,71.8,70.9,29.86,East,88,7.0,12.0,97,0.00,,,0.00,VWS V14.01,2013-08-29 08:51:00,
2013-08-29 04:52:00,71.8,70.9,29.86,ESE,105,8.0,12.0,97,0.00,,,0.00,VWS V14.01,2013-08-29 08:52:00,
2013-08-29 04:53:00,71.8,70.9,29.86,East,93,5.0,12.0,97,0.00,,,0.00,VWS V14.01,2013-08-29 08:53:00,
2013-08-29 04:56:00,71.8,70.9,29.86,ESE,110,8.0,12.0,97,0.00,,,0.00,VWS V14.01,2013-08-29 08:56:00,
2013-08-29 04:57:00,71.8,70.9,29.86,East,97,8.0,12.0,97,0.00,,,0.00,VWS V14.01,2013-08-29 08:57:00,
2013-08-29 04:58:00,71.8,70.9,29.86,NE,55,8.0,12.0,97,0.00,,,0.00,VWS V14.01,2013-08-29 08:58:00,
2013-08-29 04:59:00,71.8,70.9,29.86,East,81,4.0,12.0,97,0.00,,,0.00,VWS V14.01,2013-08-29 08:59:00,
2013-08-29 05:01:00,71.8,70.9,29.86,ENE,67,2.0,12.0,97,0.00,,,0.00,VWS V14.01,2013-08-29 09:01:00,
2013-08-29 05:03:00,71.8,70.9,29.86,SE,136,6.0,12.0,97,0.00,,,0.00,VWS V14.01,2013-08-29 09:03:00,
2013-08-29 05:06:00,71.8,70.9,29.86,East,96,2.0,7.0,97,0.00,,,0.00,VWS V14.01,2013-08-29 09:06:00,
2013-08-29 05:07:00,71.8,70.9,29.86,East,92,4.0,8.0,97,0.00,,,0.00,VWS V14.01,2013-08-29 09:07:00,
2013-08-29 05:08:00,71.8,70.9,29.86,ENE,61,0.0,8.0,97,0.00,,,0.00,VWS V14.01,2013-08-29 09:08:00,
2013-08-29 05:11:00,71.8,70.9,29.86,ESE,109,2.0,9.0,97,0.00,,,0.00,VWS V14.01,2013-08-29 09:11:00,
2013-08-29 05:12:00,71.8,70.9,29.86,East,96,6.0,9.0,97,0.00,,,0.00,VWS V14.01,2013-08-29 09:12:00,
2013-08-29 05:13:00,71.8,70.9,29.86,East,95,5.0,9.0,97,0.00,,,0.00,VWS V14.01,2013-08-29 09:13:00,
2013-08-29 05:14:00,71.8,70.9,29.86,ESE,114,7.0,10.0,97,0.00,,,0.00,VWS V14.01,2013-08-29 09:14:00,
2013-08-29 05:15:00,71.8,70.9,29.86,ESE,104,8.0,10.0,97,0.00,,,0.00,VWS V14.01,2013-08-29 09:15:00,
2013-08-29 05:18:00,71.8,70.9,29.86,ENE,76,3.0,10.0,97,0.00,,,0.00,VWS V14.01,2013-08-29 09:18:00,
2013-08-29 05:20:00,71.8,70.9,29.87,East,101,2.0,10.0,97,0.00,,,0.00,VWS V14.01,2013-08-29 09:20:00,
2013-08-29 05:22:00,71.8,70.9,29.87,East,101,6.0,10.0,97,0.00,,,0.00,VWS V14.01,2013-08-29 09:22:00,
2013-08-29 05:25:00,71.8,70.9,29.87,East,91,6.0,10.0,97,0.00,,,0.00,VWS V14.01,2013-08-29 09:25:00,
2013-08-29 05:26:00,71.8,70.9,29.87,ESE,109,8.0,10.0,97,0.00,,,0.00,VWS V14.01,2013-08-29 09:26:00,
2013-08-29 05:27:00,71.8,70.9,29.87,East,90,5.0,10.0,97,0.00,,,0.00,VWS V14.01,2013-08-29 09:27:00,
2013-08-29 05:28:00,71.8,70.9,29.87,East,83,6.0,10.0,97,0.00,,,0.00,VWS V14.01,2013-08-29 09:28:00,
2013-08-29 05:31:00,71.8,70.9,29.87,East,93,5.0,12.0,97,0.00,,,0.00,VWS V14.01,2013-08-29 09:31:00,
2013-08-29 05:32:00,72.0,71.1,29.87,East,84,7.0,12.0,97,0.00,,,0.00,VWS V14.01,2013-08-29 09:32:00,
2013-08-29 05:33:00,72.0,71.1,29.87,East,86,5.0,12.0,97,0.00,,,0.00,VWS V14.01,2013-08-29 09:33:00,
2013-08-29 05:35:00,72.0,71.1,29.87,East,101,6.0,12.0,97,0.00,,,0.00,VWS V14.01,2013-08-29 09:35:00,
2013-08-29 05:36:00,72.0,71.1,29.87,ESE,109,7.0,8.0,97,0.00,,,0.00,VWS V14.01,2013-08-29 09:36:00,
2013-08-29 05:37:00,72.0,71.1,29.87,ESE,111,6.0,10.0,97,0.00,,,0.00,VWS V14.01,2013-08-29 09:37:00,
2013-08-29 05:38:00,72.1,71.2,29.87,ENE,71,5.0,11.0,97,0.00,,,0.00,VWS V14.01,2013-08-29 09:38:00,
2013-08-29 05:41:00,72.1,71.2,29.87,East,91,5.0,13.0,97,0.00,,,0.00,VWS V14.01,2013-08-29 09:41:00,
2013-08-29 05:42:00,72.1,71.2,29.87,East,94,4.0,13.0,97,0.00,,,0.00,VWS V14.01,2013-08-29 09:42:00,
2013-08-29 05:43:00,72.1,71.2,29.87,East,95,6.0,13.0,97,0.00,,,0.00,VWS V14.01,2013-08-29 09:43:00,
2013-08-29 05:47:00,72.1,71.2,29.87,East,94,7.0,13.0,97,0.00,,,0.00,VWS V14.01,2013-08-29 09:47:00,
2013-08-29 05:49:00,72.0,71.1,29.87,East,90,5.0,13.0,97,0.00,,,0.00,VWS V14.01,2013-08-29 09:49:00,
2013-08-29 05:51:00,72.0,70.8,29.87,East,84,7.0,13.0,96,0.00,,,0.00,VWS V14.01,2013-08-29 09:51:00,
2013-08-29 05:52:00,72.0,70.8,29.87,ENE,59,5.0,13.0,96,0.00,,,0.00,VWS V14.01,2013-08-29 09:52:00,
2013-08-29 05:53:00,71.8,70.6,29.87,East,85,6.0,13.0,96,0.00,,,0.00,VWS V14.01,2013-08-29 09:53:00,
2013-08-29 05:54:00,71.8,70.6,29.87,ENE,74,4.0,13.0,96,0.00,,,0.00,VWS V14.01,2013-08-29 09:54:00,
2013-08-29 05:57:00,71.6,70.4,29.87,NE,49,7.0,13.0,96,0.00,,,0.00,VWS V14.01,2013-08-29 09:57:00,
2013-08-29 05:58:00,71.6,70.4,29.87,ESE,121,8.0,13.0,96,0.00,,,0.00,VWS V14.01,2013-08-29 09:58:00,
2013-08-29 05:59:00,71.6,70.4,29.87,East,89,4.0,13.0,96,0.00,,,0.00,VWS V14.01,2013-08-29 09:59:00,
2013-08-29 06:03:00,71.5,70.3,29.87,NE,46,4.0,14.0,96,0.00,,,0.00,VWS V14.01,2013-08-29 10:03:00,
2013-08-29 06:04:00,71.5,70.3,29.87,NE,55,7.0,14.0,96,0.00,,,0.00,VWS V14.01,2013-08-29 10:04:00,
2013-08-29 06:05:00,71.6,70.4,29.88,ENE,71,3.0,14.0,96,0.00,,,0.00,VWS V14.01,2013-08-29 10:05:00,
2013-08-29 06:07:00,71.6,70.4,29.88,East,79,7.0,11.0,96,0.00,,,0.00,VWS V14.01,2013-08-29 10:07:00,
2013-08-29 06:10:00,71.6,70.4,29.88,ENE,67,5.0,11.0,96,0.00,,,0.00,VWS V14.01,2013-08-29 10:10:00,
2013-08-29 06:15:00,71.8,70.6,29.88,ESE,111,6.0,13.0,96,0.00,,,0.00,VWS V14.01,2013-08-29 10:15:00,
2013-08-29 06:16:00,71.8,70.6,29.88,ENE,65,2.0,13.0,96,0.00,,,0.00,VWS V14.01,2013-08-29 10:16:00,
2013-08-29 06:19:00,71.8,70.6,29.88,East,86,6.0,13.0,96,0.00,,,0.00,VWS V14.01,2013-08-29 10:19:00,
2013-08-29 06:21:00,71.8,70.6,29.88,East,90,2.0,13.0,96,0.00,,,0.00,VWS V14.01,2013-08-29 10:21:00,
2013-08-29 06:22:00,71.8,70.6,29.88,NE,47,4.0,13.0,96,0.00,,,0.00,VWS V14.01,2013-08-29 10:22:00,
2013-08-29 06:23:00,71.8,70.6,29.88,ENE,74,6.0,13.0,96,0.00,,,0.00,VWS V14.01,2013-08-29 10:23:00,
2013-08-29 06:26:00,71.8,70.6,29.88,ENE,71,10.0,13.0,96,0.00,,,0.00,VWS V14.01,2013-08-29 10:26:00,
2013-08-29 06:28:00,71.8,70.6,29.88,East,98,6.0,13.0,96,0.00,,,0.00,VWS V14.01,2013-08-29 10:28:00,
2013-08-29 06:32:00,71.8,70.6,29.88,East,86,4.0,13.0,96,0.00,,,0.00,VWS V14.01,2013-08-29 10:32:00,
2013-08-29 06:35:00,71.8,70.6,29.89,East,82,4.0,14.0,96,0.00,,,0.00,VWS V14.01,2013-08-29 10:35:00,
2013-08-29 06:38:00,71.6,70.4,29.89,ENE,65,6.0,12.0,96,0.00,,,0.00,VWS V14.01,2013-08-29 10:38:00,
2013-08-29 06:40:00,71.6,70.4,29.89,NE,37,5.0,12.0,96,0.00,,,0.00,VWS V14.01,2013-08-29 10:40:00,
2013-08-29 06:42:00,71.6,70.4,29.89,East,79,3.0,12.0,96,0.00,,,0.00,VWS V14.01,2013-08-29 10:42:00,
2013-08-29 06:46:00,71.6,70.4,29.89,NE,51,3.0,12.0,96,0.00,,,0.00,VWS V14.01,2013-08-29 10:46:00,
2013-08-29 06:47:00,71.6,70.4,29.89,ENE,70,7.0,12.0,96,0.00,,,0.00,VWS V14.01,2013-08-29 10:47:00,
2013-08-29 06:48:00,71.6,70.4,29.89,ENE,61,3.0,12.0,96,0.00,,,0.00,VWS V14.01,2013-08-29 10:48:00,
2013-08-29 06:52:00,71.6,70.4,29.89,ENE,78,6.0,12.0,96,0.00,,,0.00,VWS V14.01,2013-08-29 10:52:00,
2013-08-29 06:53:00,71.6,70.4,29.89,ENE,60,6.0,12.0,96,0.00,,,0.00,VWS V14.01,2013-08-29 10:53:00,
2013-08-29 06:55:00,71.5,70.3,29.89,East,85,4.0,12.0,96,0.00,,,0.00,VWS V14.01,2013-08-29 10:55:00,
2013-08-29 06:59:00,71.5,70.3,29.89,ENE,67,4.0,12.0,96,0.00,,,0.00,VWS V14.01,2013-08-29 10:59:00,
2013-08-29 07:00:00,71.5,70.3,29.89,ENE,63,6.0,12.0,96,0.00,,,0.00,VWS V14.01,2013-08-29 11:00:00,
2013-08-29 07:01:00,71.3,70.1,29.89,East,95,8.0,12.0,96,0.00,,,0.00,VWS V14.01,2013-08-29 11:01:00,
2013-08-29 07:02:00,71.3,70.1,29.89,East,88,8.0,12.0,96,0.00,,,0.00,VWS V14.01,2013-08-29 11:02:00,
2013-08-29 07:03:00,71.3,70.1,29.89,East,98,12.0,12.0,96,0.00,,,0.00,VWS V14.01,2013-08-29 11:03:00,
2013-08-29 07:04:00,71.3,70.1,29.90,East,96,7.0,12.0,96,0.00,,,0.00,VWS V14.01,2013-08-29 11:04:00,
2013-08-29 07:06:00,71.3,69.8,29.90,ENE,69,8.0,9.0,95,0.00,,,0.00,VWS V14.01,2013-08-29 11:06:00,
2013-08-29 07:09:00,71.1,69.9,29.90,ENE,71,3.0,11.0,96,0.00,,,0.00,VWS V14.01,2013-08-29 11:09:00,
2013-08-29 07:10:00,71.1,69.6,29.90,ENE,69,4.0,11.0,95,0.00,,,0.00,VWS V14.01,2013-08-29 11:10:00,
2013-08-29 07:11:00,71.1,69.6,29.90,ENE,65,3.0,11.0,95,0.00,,,0.00,VWS V14.01,2013-08-29 11:11:00,
2013-08-29 07:12:00,71.1,69.6,29.90,East,82,6.0,11.0,95,0.00,,,0.00,VWS V14.01,2013-08-29 11:12:00,
2013-08-29 07:13:00,70.9,69.4,29.90,East,101,8.0,11.0,95,0.00,,,0.00,VWS V14.01,2013-08-29 11:13:00,
2013-08-29 07:15:00,70.9,69.4,29.90,East,82,8.0,12.0,95,0.00,,,0.00,VWS V14.01,2013-08-29 11:15:00,
2013-08-29 07:18:00,70.9,69.4,29.90,East,81,5.0,15.0,95,0.00,,,0.00,VWS V14.01,2013-08-29 11:18:00,
2013-08-29 07:19:00,70.9,69.4,29.90,East,89,1.0,15.0,95,0.00,,,0.00,VWS V14.01,2013-08-29 11:19:00,
2013-08-29 07:20:00,70.9,69.4,29.90,ESE,104,5.0,15.0,95,0.00,,,0.00,VWS V14.01,2013-08-29 11:20:00,
2013-08-29 07:21:00,70.9,69.4,29.90,ESE,111,6.0,15.0,95,0.00,,,0.00,VWS V14.01,2013-08-29 11:21:00,
2013-08-29 07:23:00,70.9,69.4,29.90,ESE,107,8.0,15.0,95,0.00,,,0.00,VWS V14.01,2013-08-29 11:23:00,
2013-08-29 07:24:00,70.9,69.4,29.90,ENE,61,3.0,15.0,95,0.00,,,0.00,VWS V14.01,2013-08-29 11:24:00,
2013-08-29 07:25:00,70.9,69.4,29.90,East,82,4.0,15.0,95,0.00,,,0.00,VWS V14.01,2013-08-29 11:25:00,
2013-08-29 07:28:00,70.8,69.3,29.90,NE,56,2.0,15.0,95,0.00,,,0.00,VWS V14.01,2013-08-29 11:28:00,
2013-08-29 07:33:00,70.8,69.0,29.90,ENE,78,3.0,15.0,94,0.00,,,0.00,VWS V14.01,2013-08-29 11:33:00,
2013-08-29 07:35:00,70.8,69.0,29.91,NE,55,5.0,5.0,94,0.00,,,0.00,VWS V14.01,2013-08-29 11:35:00,
2013-08-29 07:36:00,70.8,69.0,29.91,ENE,62,3.0,8.0,94,0.00,,,0.00,VWS V14.01,2013-08-29 11:36:00,
2013-08-29 07:38:00,70.8,69.0,29.91,ESE,119,11.0,12.0,94,0.00,,,0.00,VWS V14.01,2013-08-29 11:38:00,
2013-08-29 07:41:00,70.8,69.0,29.91,ESE,103,6.0,12.0,94,0.00,,,0.00,VWS V14.01,2013-08-29 11:41:00,
2013-08-29 07:43:00,70.8,69.0,29.91,ENE,58,5.0,12.0,94,0.00,,,0.00,VWS V14.01,2013-08-29 11:43:00,
2013-08-29 07:45:00,70.8,69.0,29.91,East,82,6.0,12.0,94,0.00,,,0.00,VWS V14.01,2013-08-29 11:45:00,
2013-08-29 07:46:00,70.8,69.0,29.91,East,89,7.0,12.0,94,0.00,,,0.00,VWS V14.01,2013-08-29 11:46:00,
2013-08-29 07:47:00,70.8,69.0,29.91,East,88,10.0,12.0,94,0.00,,,0.00,VWS V14.01,2013-08-29 11:47:00,
2013-08-29 07:48:00,70.8,69.0,29.91,East,79,7.0,13.0,94,0.00,,,0.00,VWS V14.01,2013-08-29 11:48:00,
2013-08-29 07:49:00,70.8,68.7,29.91,NE,41,6.0,14.0,93,0.00,,,0.00,VWS V14.01,2013-08-29 11:49:00,
2013-08-29 07:50:00,70.8,68.7,29.91,ENE,63,5.0,14.0,93,0.00,,,0.00,VWS V14.01,2013-08-29 11:50:00,
2013-08-29 07:53:00,70.8,68.7,29.91,East,86,8.0,14.0,93,0.00,,,0.00,VWS V14.01,2013-08-29 11:53:00,
2013-08-29 07:54:00,70.8,68.7,29.91,ENE,59,8.0,14.0,93,0.00,,,0.00,VWS V14.01,2013-08-29 11:54:00,
2013-08-29 07:56:00,70.8,68.7,29.91,East,94,7.0,14.0,93,0.00,,,0.00,VWS V14.01,2013-08-29 11:56:00,
2013-08-29 07:57:00,70.8,68.7,29.91,ENE,71,4.0,14.0,93,0.00,,,0.00,VWS V14.01,2013-08-29 11:57:00,
2013-08-29 07:58:00,70.8,68.7,29.91,NE,54,3.0,14.0,93,0.00,,,0.00,VWS V14.01,2013-08-29 11:58:00,
2013-08-29 08:00:00,70.8,68.7,29.91,East,79,5.0,14.0,93,0.00,,,0.00,VWS V14.01,2013-08-29 12:00:00,
2013-08-29 08:02:00,70.6,68.2,29.91,ENE,73,10.0,14.0,92,0.00,,,0.00,VWS V14.01,2013-08-29 12:02:00,
2013-08-29 08:04:00,70.6,68.2,29.92,ENE,67,4.0,14.0,92,0.00,,,0.00,VWS V14.01,2013-08-29 12:04:00,
2013-08-29 08:05:00,70.6,68.2,29.92,ENE,76,5.0,14.0,92,0.00,,,0.00,VWS V14.01,2013-08-29 12:05:00,
2013-08-29 08:07:00,70.4,68.0,29.92,ENE,63,10.0,13.0,92,0.00,,,0.00,VWS V14.01,2013-08-29 12:07:00,
2013-08-29 08:09:00,70.4,68.0,29.92,ENE,59,6.0,15.0,92,0.00,,,0.00,VWS V14.01,2013-08-29 12:09:00,
2013-08-29 08:10:00,70.4,68.0,29.92,East,89,5.0,15.0,92,0.00,,,0.00,VWS V14.01,2013-08-29 12:10:00,
2013-08-29 08:11:00,70.4,68.0,29.92,NE,50,7.0,15.0,92,0.00,,,0.00,VWS V14.01,2013-08-29 12:11:00,
2013-08-29 08:12:00,70.4,68.0,29.92,East,86,6.0,15.0,92,0.00,,,0.00,VWS V14.01,2013-08-29 12:12:00,
2013-08-29 08:13:00,70.4,68.0,29.92,ENE,67,5.0,15.0,92,0.00,,,0.00,VWS V14.01,2013-08-29 12:13:00,
2013-08-29 08:16:00,70.4,68.0,29.92,ENE,76,7.0,15.0,92,0.00,,,0.00,VWS V14.01,2013-08-29 12:16:00,
2013-08-29 08:17:00,70.4,68.0,29.92,East,79,3.0,15.0,92,0.00,,,0.00,VWS V14.01,2013-08-29 12:17:00,
2013-08-29 08:22:00,70.4,67.7,29.93,ENE,63,6.0,15.0,91,0.00,,,0.00,VWS V14.01,2013-08-29 12:22:00,
2013-08-29 08:23:00,70.4,67.7,29.93,East,80,8.0,15.0,91,0.00,,,0.00,VWS V14.01,2013-08-29 12:23:00,
2013-08-29 08:24:00,70.4,67.7,29.93,ENE,62,7.0,15.0,91,0.00,,,0.00,VWS V14.01,2013-08-29 12:24:00,
2013-08-29 08:25:00,70.3,67.6,29.93,ENE,60,5.0,15.0,91,0.00,,,0.00,VWS V14.01,2013-08-29 12:25:00,
2013-08-29 08:29:00,70.3,67.2,29.93,ESE,111,11.0,15.0,90,0.00,,,0.00,VWS V14.01,2013-08-29 12:29:00,
2013-08-29 08:31:00,70.4,67.3,29.93,NE,49,5.0,15.0,90,0.00,,,0.00,VWS V14.01,2013-08-29 12:31:00,
2013-08-29 08:34:00,70.4,67.3,29.93,NE,55,5.0,15.0,90,0.00,,,0.00,VWS V14.01,2013-08-29 12:34:00,
2013-08-29 08:36:00,70.6,67.5,29.93,NE,46,10.0,12.0,90,0.00,,,0.00,VWS V14.01,2013-08-29 12:36:00,
2013-08-29 08:37:00,70.6,67.5,29.93,NE,51,10.0,12.0,90,0.00,,,0.00,VWS V14.01,2013-08-29 12:37:00,
2013-08-29 08:38:00,70.6,67.5,29.93,NE,51,4.0,13.0,90,0.00,,,0.00,VWS V14.01,2013-08-29 12:38:00,
2013-08-29 08:42:00,70.6,67.5,29.93,ENE,59,6.0,13.0,90,0.00,,,0.00,VWS V14.01,2013-08-29 12:42:00,
2013-08-29 08:43:00,70.8,67.7,29.93,East,90,6.0,13.0,90,0.00,,,0.00,VWS V14.01,2013-08-29 12:43:00,
2013-08-29 08:44:00,70.8,67.7,29.93,ENE,67,6.0,13.0,90,0.00,,,0.00,VWS V14.01,2013-08-29 12:44:00,
2013-08-29 08:46:00,70.8,67.7,29.93,ENE,61,8.0,14.0,90,0.00,,,0.00,VWS V14.01,2013-08-29 12:46:00,
2013-08-29 08:47:00,70.8,67.7,29.93,East,81,11.0,14.0,90,0.00,,,0.00,VWS V14.01,2013-08-29 12:47:00,
2013-08-29 08:48:00,70.8,67.7,29.93,NE,42,3.0,14.0,90,0.00,,,0.00,VWS V14.01,2013-08-29 12:48:00,
2013-08-29 08:49:00,70.8,67.4,29.93,NE,56,4.0,14.0,89,0.00,,,0.00,VWS V14.01,2013-08-29 12:49:00,
2013-08-29 08:50:00,70.8,67.4,29.93,ENE,69,5.0,14.0,89,0.00,,,0.00,VWS V14.01,2013-08-29 12:50:00,
2013-08-29 08:54:00,70.8,67.4,29.93,ENE,65,6.0,14.0,89,0.00,,,0.00,VWS V14.01,2013-08-29 12:54:00,
2013-08-29 08:55:00,70.8,67.4,29.93,ENE,64,5.0,14.0,89,0.00,,,0.00,VWS V14.01,2013-08-29 12:55:00,
2013-08-29 08:56:00,70.8,67.4,29.93,ENE,71,7.0,14.0,89,0.00,,,0.00,VWS V14.01,2013-08-29 12:56:00,
2013-08-29 08:58:00,70.8,67.4,29.93,ENE,71,6.0,14.0,89,0.00,,,0.00,VWS V14.01,2013-08-29 12:58:00,
2013-08-29 08:59:00,70.8,67.4,29.93,ENE,71,10.0,14.0,89,0.00,,,0.00,VWS V14.01,2013-08-29 12:59:00,
2013-08-29 09:00:00,70.8,67.4,29.93,ENE,61,8.0,14.0,89,0.00,,,0.00,VWS V14.01,2013-08-29 13:00:00,
2013-08-29 09:03:00,70.9,67.5,29.93,ENE,78,6.0,14.0,89,0.00,,,0.00,VWS V14.01,2013-08-29 13:03:00,
2013-08-29 09:04:00,70.9,67.5,29.93,ENE,67,8.0,14.0,89,0.00,,,0.00,VWS V14.01,2013-08-29 13:04:00,
2013-08-29 09:05:00,70.9,67.5,29.93,ENE,63,5.0,14.0,89,0.00,,,0.00,VWS V14.01,2013-08-29 13:05:00,
2013-08-29 09:10:00,71.3,67.6,29.93,ENE,66,11.0,11.0,88,0.00,,,0.00,VWS V14.01,2013-08-29 13:10:00,
2013-08-29 09:11:00,71.3,67.6,29.93,East,92,7.0,11.0,88,0.00,,,0.00,VWS V14.01,2013-08-29 13:11:00,
2013-08-29 09:16:00,71.5,67.8,29.93,NE,54,5.0,11.0,88,0.00,,,0.00,VWS V14.01,2013-08-29 13:16:00,
2013-08-29 09:17:00,71.5,67.8,29.93,ENE,61,13.0,13.0,88,0.00,,,0.00,VWS V14.01,2013-08-29 13:17:00,
2013-08-29 09:18:00,71.6,67.9,29.93,NE,44,6.0,13.0,88,0.00,,,0.00,VWS V14.01,2013-08-29 13:18:00,
2013-08-29 09:19:00,71.6,67.9,29.93,NE,56,10.0,13.0,88,0.00,,,0.00,VWS V14.01,2013-08-29 13:19:00,
2013-08-29 09:24:00,71.8,68.1,29.94,East,89,6.0,13.0,88,0.00,,,0.00,VWS V14.01,2013-08-29 13:24:00,
2013-08-29 09:25:00,71.8,68.1,29.94,ENE,69,8.0,13.0,88,0.00,,,0.00,VWS V14.01,2013-08-29 13:25:00,
2013-08-29 09:26:00,72.0,68.3,29.94,NE,42,3.0,13.0,88,0.00,,,0.00,VWS V14.01,2013-08-29 13:26:00,
2013-08-29 09:29:00,72.0,68.3,29.94,East,91,11.0,13.0,88,0.00,,,0.00,VWS V14.01,2013-08-29 13:29:00,
2013-08-29 09:30:00,72.0,68.3,29.94,ENE,57,8.0,13.0,88,0.00,,,0.00,VWS V14.01,2013-08-29 13:30:00,
2013-08-29 09:31:00,72.0,68.3,29.94,ENE,72,10.0,13.0,88,0.00,,,0.00,VWS V14.01,2013-08-29 13:31:00,
2013-08-29 09:32:00,72.0,68.3,29.94,NE,55,4.0,13.0,88,0.00,,,0.00,VWS V14.01,2013-08-29 13:32:00,
2013-08-29 09:33:00,72.0,68.3,29.94,ENE,61,6.0,13.0,88,0.00,,,0.00,VWS V14.01,2013-08-29 13:33:00,
2013-08-29 09:35:00,72.1,68.3,29.94,ENE,74,5.0,13.0,88,0.00,,,0.00,VWS V14.01,2013-08-29 13:35:00,
2013-08-29 09:37:00,72.1,68.3,29.94,ENE,76,10.0,13.0,88,0.00,,,0.00,VWS V14.01,2013-08-29 13:37:00,
2013-08-29 09:39:00,72.1,68.3,29.94,ENE,76,13.0,13.0,88,0.00,,,0.00,VWS V14.01,2013-08-29 13:39:00,
2013-08-29 09:40:00,72.1,68.3,29.94,East,94,11.0,13.0,88,0.00,,,0.00,VWS V14.01,2013-08-29 13:40:00,
2013-08-29 09:41:00,72.1,68.3,29.94,NE,34,7.0,13.0,88,0.00,,,0.00,VWS V14.01,2013-08-29 13:41:00,
2013-08-29 09:42:00,72.1,68.3,29.94,East,101,6.0,14.0,88,0.00,,,0.00,VWS V14.01,2013-08-29 13:42:00,
2013-08-29 09:43:00,72.1,68.3,29.94,ENE,76,5.0,14.0,88,0.00,,,0.00,VWS V14.01,2013-08-29 13:43:00,
2013-08-29 09:44:00,72.1,68.3,29.94,ENE,75,3.0,14.0,88,0.00,,,0.00,VWS V14.01,2013-08-29 13:44:00,
2013-08-29 09:45:00,72.1,68.3,29.94,ENE,59,10.0,14.0,88,0.00,,,0.00,VWS V14.01,2013-08-29 13:45:00,
2013-08-29 09:48:00,72.1,68.3,29.94,ENE,69,10.0,14.0,88,0.00,,,0.00,VWS V14.01,2013-08-29 13:48:00,
2013-08-29 09:49:00,72.1,68.3,29.94,NE,56,7.0,14.0,88,0.00,,,0.00,VWS V14.01,2013-08-29 13:49:00,
2013-08-29 09:51:00,72.0,68.3,29.94,NE,50,6.0,15.0,88,0.00,,,0.00,VWS V14.01,2013-08-29 13:51:00,
2013-08-29 09:53:00,72.0,68.3,29.94,ENE,57,7.0,15.0,88,0.00,,,0.00,VWS V14.01,2013-08-29 13:53:00,
2013-08-29 09:54:00,72.0,68.3,29.94,ENE,57,13.0,16.0,88,0.00,,,0.00,VWS V14.01,2013-08-29 13:54:00,
2013-08-29 09:57:00,72.0,68.3,29.94,ENE,57,10.0,16.0,88,0.00,,,0.00,VWS V14.01,2013-08-29 13:57:00,
2013-08-29 09:59:00,72.0,67.9,29.94,NE,46,11.0,16.0,87,0.00,,,0.00,VWS V14.01,2013-08-29 13:59:00,
2013-08-29 10:02:00,72.0,67.9,29.94,NE,38,14.0,16.0,87,0.00,,,0.00,VWS V14.01,2013-08-29 14:02:00,
2013-08-29 10:03:00,72.0,68.3,29.94,ENE,67,10.0,16.0,88,0.00,,,0.00,VWS V14.01,2013-08-29 14:03:00,
2013-08-29 10:04:00,72.0,68.3,29.94,ENE,68,10.0,16.0,88,0.00,,,0.00,VWS V14.01,2013-08-29 14:04:00,
2013-08-29 10:05:00,72.0,68.3,29.95,ENE,67,12.0,17.0,88,0.00,,,0.00,VWS V14.01,2013-08-29 14:05:00,
2013-08-29 10:08:00,72.0,67.9,29.95,ENE,57,8.0,16.0,87,0.00,,,0.00,VWS V14.01,2013-08-29 14:08:00,
2013-08-29 10:09:00,72.0,68.3,29.95,East,93,12.0,17.0,88,0.00,,,0.00,VWS V14.01,2013-08-29 14:09:00,
2013-08-29 10:10:00,72.0,68.3,29.95,NE,53,11.0,17.0,88,0.00,,,0.00,VWS V14.01,2013-08-29 14:10:00,
2013-08-29 10:11:00,72.0,68.3,29.95,ENE,70,12.0,17.0,88,0.00,,,0.00,VWS V14.01,2013-08-29 14:11:00,
2013-08-29 10:13:00,72.0,68.3,29.95,ENE,66,5.0,17.0,88,0.00,,,0.00,VWS V14.01,2013-08-29 14:13:00,
2013-08-29 10:15:00,72.0,68.3,29.95,ENE,59,4.0,17.0,88,0.00,,,0.00,VWS V14.01,2013-08-29 14:15:00,
2013-08-29 10:16:00,72.0,68.3,29.95,ENE,61,6.0,17.0,88,0.00,,,0.00,VWS V14.01,2013-08-29 14:16:00,
2013-08-29 10:18:00,72.0,68.3,29.95,ENE,59,13.0,17.0,88,0.00,,,0.00,VWS V14.01,2013-08-29 14:18:00,
2013-08-29 10:22:00,71.8,68.1,29.95,NE,48,6.0,18.0,88,0.00,,,0.00,VWS V14.01,2013-08-29 14:22:00,
2013-08-29 10:24:00,71.5,67.4,29.95,East,94,16.0,18.0,87,0.00,,,0.00,VWS V14.01,2013-08-29 14:24:00,
2013-08-29 10:25:00,71.5,67.8,29.95,ENE,74,7.0,19.0,88,0.00,,,0.00,VWS V14.01,2013-08-29 14:25:00,
2013-08-29 10:27:00,71.1,67.0,29.95,ENE,63,10.0,19.0,87,0.00,,,0.00,VWS V14.01,2013-08-29 14:27:00,
2013-08-29 10:30:00,71.1,67.0,29.95,East,97,13.0,19.0,87,0.00,,,0.00,VWS V14.01,2013-08-29 14:30:00,
2013-08-29 10:31:00,71.1,67.0,29.95,ENE,74,11.0,19.0,87,0.00,,,0.00,VWS V14.01,2013-08-29 14:31:00,
2013-08-29 10:32:00,71.1,67.0,29.95,NE,54,8.0,19.0,87,0.00,,,0.00,VWS V14.01,2013-08-29 14:32:00,
2013-08-29 10:33:00,70.9,66.8,29.95,NE,51,13.0,19.0,87,0.00,,,0.00,VWS V14.01,2013-08-29 14:33:00,
2013-08-29 10:36:00,71.1,67.0,29.95,NE,38,8.0,16.0,87,0.00,,,0.00,VWS V14.01,2013-08-29 14:36:00,
2013-08-29 10:37:00,71.1,67.0,29.95,ENE,68,10.0,18.0,87,0.00,,,0.00,VWS V14.01,2013-08-29 14:37:00,
2013-08-29 10:38:00,71.1,67.0,29.95,ENE,70,13.0,18.0,87,0.00,,,0.00,VWS V14.01,2013-08-29 14:38:00,
2013-08-29 10:39:00,71.1,67.0,29.95,East,84,8.0,19.0,87,0.00,,,0.00,VWS V14.01,2013-08-29 14:39:00,
2013-08-29 10:52:00,70.9,67.2,29.95,NE,44,5.0,19.0,88,0.00,,,0.00,VWS V14.01,2013-08-29 14:52:00,
2013-08-29 10:53:00,70.9,67.2,29.95,ESE,107,11.0,19.0,88,0.00,,,0.00,VWS V14.01,2013-08-29 14:53:00,
2013-08-29 10:54:00,70.8,67.1,29.95,NNE,26,5.0,19.0,88,0.00,,,0.00,VWS V14.01,2013-08-29 14:54:00,
2013-08-29 11:10:00,70.4,66.3,29.96,ENE,63,10.0,17.0,87,0.00,,,0.00,VWS V14.01,2013-08-29 15:10:00,
2013-08-29 11:11:00,70.4,66.3,29.96,East,82,12.0,17.0,87,0.00,,,0.00,VWS V14.01,2013-08-29 15:11:00,
2013-08-29 11:14:00,70.6,66.6,29.96,ENE,67,11.0,17.0,87,0.00,,,0.00,VWS V14.01,2013-08-29 15:14:00,
2013-08-29 11:17:00,70.8,66.7,29.96,East,85,11.0,18.0,87,0.00,,,0.00,VWS V14.01,2013-08-29 15:17:00,
2013-08-29 11:18:00,70.9,66.8,29.96,ENE,74,8.0,18.0,87,0.00,,,0.00,VWS V14.01,2013-08-29 15:18:00,
2013-08-29 11:20:00,70.9,66.5,29.96,ENE,62,5.0,18.0,86,0.00,,,0.00,VWS V14.01,2013-08-29 15:20:00,
2013-08-29 11:22:00,71.1,66.7,29.96,NE,52,10.0,18.0,86,0.00,,,0.00,VWS V14.01,2013-08-29 15:22:00,
2013-08-29 11:23:00,71.1,66.4,29.96,NE,48,6.0,18.0,85,0.00,,,0.00,VWS V14.01,2013-08-29 15:23:00,
2013-08-29 11:24:00,71.1,66.4,29.96,ENE,59,3.0,18.0,85,0.00,,,0.00,VWS V14.01,2013-08-29 15:24:00,
2013-08-29 11:27:00,71.3,66.2,29.96,ENE,66,11.0,19.0,84,0.00,,,0.00,VWS V14.01,2013-08-29 15:27:00,
2013-08-29 11:28:00,71.5,66.4,29.96,NE,46,6.0,19.0,84,0.00,,,0.00,VWS V14.01,2013-08-29 15:28:00,
2013-08-29 11:30:00,71.6,66.5,29.96,East,90,12.0,19.0,84,0.00,,,0.00,VWS V14.01,2013-08-29 15:30:00,
2013-08-29 11:32:00,71.6,66.5,29.96,NE,55,8.0,19.0,84,0.00,,,0.00,VWS V14.01,2013-08-29 15:32:00,
2013-08-29 11:34:00,72.0,66.6,29.96,NE,36,4.0,19.0,83,0.00,,,0.00,VWS V14.01,2013-08-29 15:34:00,
2013-08-29 11:35:00,72.0,66.6,29.96,NE,54,10.0,10.0,83,0.00,,,0.00,VWS V14.01,2013-08-29 15:35:00,
2013-08-29 11:36:00,72.3,67.2,29.96,NE,42,5.0,13.0,84,0.00,,,0.00,VWS V14.01,2013-08-29 15:36:00,
2013-08-29 11:38:00,72.8,67.0,29.96,NE,56,11.0,13.0,82,0.00,,,0.00,VWS V14.01,2013-08-29 15:38:00,
2013-08-29 11:39:00,73.0,66.8,29.96,NE,51,10.0,14.0,81,0.00,,,0.00,VWS V14.01,2013-08-29 15:39:00,
2013-08-29 11:41:00,73.5,67.3,29.96,East,80,7.0,15.0,81,0.00,,,0.00,VWS V14.01,2013-08-29 15:41:00,
2013-08-29 11:43:00,73.9,67.0,29.96,ENE,63,10.0,15.0,79,0.00,,,0.00,VWS V14.01,2013-08-29 15:43:00,
2013-08-29 11:46:00,74.6,67.7,29.96,NE,49,3.0,15.0,79,0.00,,,0.00,VWS V14.01,2013-08-29 15:46:00,
2013-08-29 11:47:00,74.7,67.8,29.96,ENE,76,4.0,15.0,79,0.00,,,0.00,VWS V14.01,2013-08-29 15:47:00,
2013-08-29 11:48:00,74.9,67.2,29.96,NE,51,11.0,15.0,77,0.00,,,0.00,VWS V14.01,2013-08-29 15:48:00,
2013-08-29 11:49:00,74.9,66.8,29.96,ENE,62,12.0,15.0,76,0.00,,,0.00,VWS V14.01,2013-08-29 15:49:00,
2013-08-29 11:52:00,74.9,66.8,29.96,NE,44,13.0,15.0,76,0.00,,,0.00,VWS V14.01,2013-08-29 15:52:00,
2013-08-29 11:54:00,74.9,66.4,29.96,ENE,67,6.0,15.0,75,0.00,,,0.00,VWS V14.01,2013-08-29 15:54:00,
2013-08-29 11:55:00,74.9,66.4,29.96,ENE,69,7.0,15.0,75,0.00,,,0.00,VWS V14.01,2013-08-29 15:55:00,
2013-08-29 11:57:00,75.3,67.6,29.96,ENE,70,10.0,15.0,77,0.00,,,0.00,VWS V14.01,2013-08-29 15:57:00,
2013-08-29 11:58:00,75.4,67.3,29.96,ENE,61,13.0,16.0,76,0.00,,,0.00,VWS V14.01,2013-08-29 15:58:00,
2013-08-29 12:03:00,75.4,66.5,29.96,ENE,61,6.0,16.0,74,0.00,,,0.00,VWS V14.01,2013-08-29 16:03:00,
2013-08-29 12:05:00,76.0,66.7,29.96,ENE,60,6.0,16.0,73,0.00,,,0.00,VWS V14.01,2013-08-29 16:05:00,
2013-08-29 12:08:00,76.1,66.4,29.96,ENE,62,5.0,9.0,72,0.00,,,0.00,VWS V14.01,2013-08-29 16:08:00,
2013-08-29 12:09:00,76.1,66.8,29.96,ENE,75,13.0,15.0,73,0.00,,,0.00,VWS V14.01,2013-08-29 16:09:00,
2013-08-29 12:11:00,76.1,66.4,29.96,ENE,62,6.0,15.0,72,0.00,,,0.00,VWS V14.01,2013-08-29 16:11:00,
2013-08-29 12:13:00,76.0,66.3,29.96,NE,47,8.0,15.0,72,0.00,,,0.00,VWS V14.01,2013-08-29 16:13:00,
2013-08-29 12:15:00,75.8,66.5,29.96,ENE,67,13.0,15.0,73,0.00,,,0.00,VWS V14.01,2013-08-29 16:15:00,
2013-08-29 12:16:00,75.8,66.5,29.96,ENE,60,7.0,15.0,73,0.00,,,0.00,VWS V14.01,2013-08-29 16:16:00,
2013-08-29 12:18:00,75.8,66.9,29.96,ENE,67,13.0,15.0,74,0.00,,,0.00,VWS V14.01,2013-08-29 16:18:00,
2013-08-29 12:20:00,76.0,66.7,29.96,ENE,76,7.0,15.0,73,0.00,,,0.00,VWS V14.01,2013-08-29 16:20:00,
2013-08-29 12:21:00,76.0,67.1,29.96,ENE,65,8.0,17.0,74,0.00,,,0.00,VWS V14.01,2013-08-29 16:21:00,
2013-08-29 12:23:00,76.0,66.7,29.96,ENE,59,10.0,17.0,73,0.00,,,0.00,VWS V14.01,2013-08-29 16:23:00,
2013-08-29 12:25:00,76.0,66.7,29.96,ENE,62,11.0,17.0,73,0.00,,,0.00,VWS V14.01,2013-08-29 16:25:00,
2013-08-29 12:26:00,76.1,66.8,29.96,ENE,64,7.0,17.0,73,0.00,,,0.00,VWS V14.01,2013-08-29 16:26:00,
2013-08-29 12:28:00,76.1,66.8,29.96,NE,55,5.0,17.0,73,0.00,,,0.00,VWS V14.01,2013-08-29 16:28:00,
2013-08-29 12:29:00,76.1,66.4,29.96,ENE,63,10.0,17.0,72,0.00,,,0.00,VWS V14.01,2013-08-29 16:29:00,
2013-08-29 12:31:00,76.3,67.0,29.96,NE,55,8.0,17.0,73,0.00,,,0.00,VWS V14.01,2013-08-29 16:31:00,
2013-08-29 12:33:00,76.5,66.8,29.96,ENE,59,12.0,17.0,72,0.00,,,0.00,VWS V14.01,2013-08-29 16:33:00,
2013-08-29 12:35:00,76.8,67.1,29.96,ENE,62,5.0,17.0,72,0.00,,,0.00,VWS V14.01,2013-08-29 16:35:00,
2013-08-29 12:36:00,77.0,67.3,29.96,NE,49,8.0,8.0,72,0.00,,,0.00,VWS V14.01,2013-08-29 16:36:00,
2013-08-29 12:38:00,77.4,67.7,29.96,NE,41,3.0,13.0,72,0.00,,,0.00,VWS V14.01,2013-08-29 16:38:00,
2013-08-29 12:42:00,77.6,67.1,29.96,East,80,7.0,13.0,70,0.00,,,0.00,VWS V14.01,2013-08-29 16:42:00,
2013-08-29 12:43:00,77.6,67.1,29.96,ENE,66,7.0,13.0,70,0.00,,,0.00,VWS V14.01,2013-08-29 16:43:00,
2013-08-29 12:46:00,77.7,68.0,29.96,North,10,4.0,13.0,72,0.00,,,0.00,VWS V14.01,2013-08-29 16:46:00,
2013-08-29 12:47:00,77.6,67.1,29.96,NE,47,8.0,13.0,70,0.00,,,0.00,VWS V14.01,2013-08-29 16:47:00,
2013-08-29 12:49:00,77.6,67.5,29.96,NE,51,7.0,13.0,71,0.00,,,0.00,VWS V14.01,2013-08-29 16:49:00,
2013-08-29 12:52:00,77.7,67.6,29.96,ENE,69,8.0,13.0,71,0.00,,,0.00,VWS V14.01,2013-08-29 16:52:00,
2013-08-29 12:53:00,77.7,68.0,29.96,ENE,60,7.0,13.0,72,0.00,,,0.00,VWS V14.01,2013-08-29 16:53:00,
2013-08-29 12:54:00,77.7,67.6,29.96,NE,51,10.0,13.0,71,0.00,,,0.00,VWS V14.01,2013-08-29 16:54:00,
2013-08-29 12:58:00,77.6,67.5,29.96,NE,51,7.0,13.0,71,0.00,,,0.00,VWS V14.01,2013-08-29 16:58:00,
2013-08-29 12:59:00,77.6,67.5,29.96,NE,56,12.0,13.0,71,0.00,,,0.00,VWS V14.01,2013-08-29 16:59:00,
2013-08-29 13:00:00,77.6,67.1,29.96,NE,46,3.0,13.0,70,0.00,,,0.00,VWS V14.01,2013-08-29 17:00:00,
2013-08-29 13:04:00,77.6,67.5,29.96,ENE,65,8.0,13.0,71,0.00,,,0.00,VWS V14.01,2013-08-29 17:04:00,
2013-08-29 13:05:00,77.6,67.5,29.96,East,79,6.0,13.0,71,0.00,,,0.00,VWS V14.01,2013-08-29 17:05:00,
2013-08-29 13:06:00,77.4,67.3,29.96,ENE,58,5.0,8.0,71,0.00,,,0.00,VWS V14.01,2013-08-29 17:06:00,
2013-08-29 13:11:00,77.4,67.3,29.96,ENE,57,5.0,12.0,71,0.00,,,0.00,VWS V14.01,2013-08-29 17:11:00,
2013-08-29 13:12:00,77.6,67.5,29.96,ENE,63,3.0,12.0,71,0.00,,,0.00,VWS V14.01,2013-08-29 17:12:00,
2013-08-29 13:13:00,77.7,67.6,29.96,ENE,66,3.0,12.0,71,0.00,,,0.00,VWS V14.01,2013-08-29 17:13:00,
2013-08-29 13:17:00,77.9,67.8,29.96,East,85,7.0,12.0,71,0.00,,,0.00,VWS V14.01,2013-08-29 17:17:00,
2013-08-29 13:19:00,77.7,67.6,29.96,ENE,67,7.0,12.0,71,0.00,,,0.00,VWS V14.01,2013-08-29 17:19:00,
2013-08-29 13:20:00,77.7,67.6,29.96,NE,51,10.0,12.0,71,0.00,,,0.00,VWS V14.01,2013-08-29 17:20:00,
2013-08-29 13:24:00,77.4,67.3,29.96,NE,47,3.0,12.0,71,0.00,,,0.00,VWS V14.01,2013-08-29 17:24:00,
2013-08-29 13:25:00,77.2,67.1,29.96,ENE,65,7.0,12.0,71,0.00,,,0.00,VWS V14.01,2013-08-29 17:25:00,
2013-08-29 13:26:00,77.2,67.1,29.96,NE,47,4.0,13.0,71,0.00,,,0.00,VWS V14.01,2013-08-29 17:26:00,
2013-08-29 13:27:00,77.0,67.3,29.96,ENE,78,10.0,13.0,72,0.00,,,0.00,VWS V14.01,2013-08-29 17:27:00,
2013-08-29 13:29:00,77.0,67.3,29.96,ENE,76,7.0,13.0,72,0.00,,,0.00,VWS V14.01,2013-08-29 17:29:00,
2013-08-29 13:31:00,77.0,67.3,29.96,NE,52,5.0,13.0,72,0.00,,,0.00,VWS V14.01,2013-08-29 17:31:00,
2013-08-29 13:32:00,77.0,67.3,29.96,ENE,75,5.0,13.0,72,0.00,,,0.00,VWS V14.01,2013-08-29 17:32:00,
2013-08-29 13:33:00,77.0,67.3,29.96,ENE,71,5.0,13.0,72,0.00,,,0.00,VWS V14.01,2013-08-29 17:33:00,
2013-08-29 13:35:00,76.8,67.1,29.96,ENE,73,6.0,13.0,72,0.00,,,0.00,VWS V14.01,2013-08-29 17:35:00,
2013-08-29 13:37:00,76.8,67.1,29.96,ENE,69,4.0,11.0,72,0.00,,,0.00,VWS V14.01,2013-08-29 17:37:00,
2013-08-29 13:39:00,76.8,66.7,29.96,East,83,4.0,11.0,71,0.00,,,0.00,VWS V14.01,2013-08-29 17:39:00,
2013-08-29 13:40:00,76.7,67.0,29.96,NE,48,10.0,12.0,72,0.00,,,0.00,VWS V14.01,2013-08-29 17:40:00,
2013-08-29 13:41:00,76.7,66.6,29.96,ENE,60,1.0,12.0,71,0.00,,,0.00,VWS V14.01,2013-08-29 17:41:00,
2013-08-29 13:42:00,76.5,66.4,29.96,ENE,76,4.0,12.0,71,0.00,,,0.00,VWS V14.01,2013-08-29 17:42:00,
2013-08-29 13:46:00,76.3,66.6,29.96,ENE,65,8.0,12.0,72,0.00,,,0.00,VWS V14.01,2013-08-29 17:46:00,
2013-08-29 13:47:00,76.3,66.6,29.96,ENE,77,8.0,12.0,72,0.00,,,0.00,VWS V14.01,2013-08-29 17:47:00,
2013-08-29 13:48:00,76.3,66.6,29.96,East,92,5.0,12.0,72,0.00,,,0.00,VWS V14.01,2013-08-29 17:48:00,
2013-08-29 13:52:00,76.3,66.2,29.97,ENE,75,0.0,12.0,71,0.00,,,0.00,VWS V14.01,2013-08-29 17:52:00,
2013-08-29 13:53:00,76.3,66.2,29.97,ENE,72,7.0,12.0,71,0.00,,,0.00,VWS V14.01,2013-08-29 17:53:00,
2013-08-29 13:54:00,76.3,66.6,29.97,East,84,2.0,12.0,72,0.00,,,0.00,VWS V14.01,2013-08-29 17:54:00,
2013-08-29 13:55:00,76.5,66.8,29.97,ENE,73,6.0,12.0,72,0.00,,,0.00,VWS V14.01,2013-08-29 17:55:00,
2013-08-29 13:57:00,76.5,66.8,29.97,ENE,72,2.0,12.0,72,0.00,,,0.00,VWS V14.01,2013-08-29 17:57:00,
2013-08-29 13:58:00,76.5,66.8,29.97,ENE,74,0.0,12.0,72,0.00,,,0.00,VWS V14.01,2013-08-29 17:58:00,
2013-08-29 14:00:00,76.5,66.8,29.97,ENE,69,4.0,12.0,72,0.00,,,0.00,VWS V14.01,2013-08-29 18:00:00,
2013-08-29 14:05:00,76.5,66.4,29.97,NE,54,0.0,12.0,71,0.00,,,0.00,VWS V14.01,2013-08-29 18:05:00,
2013-08-29 14:06:00,76.5,66.4,29.97,ENE,61,6.0,6.0,71,0.00,,,0.00,VWS V14.01,2013-08-29 18:06:00,
2013-08-29 14:07:00,76.5,66.4,29.97,ENE,61,6.0,10.0,71,0.00,,,0.00,VWS V14.01,2013-08-29 18:07:00,
2013-08-29 14:10:00,76.5,66.8,29.97,East,80,6.0,10.0,72,0.00,,,0.00,VWS V14.01,2013-08-29 18:10:00,
2013-08-29 14:11:00,76.5,66.8,29.97,ENE,69,3.0,10.0,72,0.00,,,0.00,VWS V14.01,2013-08-29 18:11:00,
2013-08-29 14:12:00,76.5,66.8,29.97,ENE,68,2.0,10.0,72,0.00,,,0.00,VWS V14.01,2013-08-29 18:12:00,
2013-08-29 14:13:00,76.7,66.6,29.97,ENE,58,0.0,10.0,71,0.00,,,0.00,VWS V14.01,2013-08-29 18:13:00,
2013-08-29 14:15:00,76.7,66.6,29.97,ENE,63,6.0,10.0,71,0.00,,,0.00,VWS V14.01,2013-08-29 18:15:00,
2013-08-29 14:16:00,76.8,67.1,29.97,ENE,66,7.0,12.0,72,0.00,,,0.00,VWS V14.01,2013-08-29 18:16:00,
2013-08-29 14:19:00,76.8,66.7,29.97,ENE,61,0.0,12.0,71,0.00,,,0.00,VWS V14.01,2013-08-29 18:19:00,
2013-08-29 14:20:00,77.0,66.9,29.96,ENE,61,1.0,12.0,71,0.00,,,0.00,VWS V14.01,2013-08-29 18:20:00,
2013-08-29 14:22:00,77.2,67.5,29.96,ENE,64,8.0,12.0,72,0.00,,,0.00,VWS V14.01,2013-08-29 18:22:00,
2013-08-29 14:23:00,77.2,66.7,29.96,ENE,76,8.0,12.0,70,0.00,,,0.00,VWS V14.01,2013-08-29 18:23:00,
2013-08-29 14:26:00,77.6,67.1,29.96,NE,55,6.0,12.0,70,0.00,,,0.00,VWS V14.01,2013-08-29 18:26:00,
2013-08-29 14:27:00,77.6,67.1,29.96,ENE,61,6.0,12.0,70,0.00,,,0.00,VWS V14.01,2013-08-29 18:27:00,
2013-08-29 14:28:00,77.7,67.1,29.96,East,82,3.0,12.0,70,0.00,,,0.00,VWS V14.01,2013-08-29 18:28:00,
2013-08-29 14:29:00,77.7,67.1,29.96,East,80,6.0,12.0,70,0.00,,,0.00,VWS V14.01,2013-08-29 18:29:00,
2013-08-29 14:31:00,77.9,67.8,29.96,ENE,67,3.0,12.0,71,0.00,,,0.00,VWS V14.01,2013-08-29 18:31:00,
2013-08-29 14:34:00,78.3,66.9,29.96,ESE,102,0.0,12.0,68,0.00,,,0.00,VWS V14.01,2013-08-29 18:34:00,
2013-08-29 14:35:00,78.3,67.7,29.96,ENE,64,5.0,12.0,70,0.00,,,0.00,VWS V14.01,2013-08-29 18:35:00,
2013-08-29 14:36:00,78.3,66.9,29.96,ENE,69,5.0,7.0,68,0.00,,,0.00,VWS V14.01,2013-08-29 18:36:00,
2013-08-29 14:38:00,78.3,67.3,29.96,ENE,61,6.0,11.0,69,0.00,,,0.00,VWS V14.01,2013-08-29 18:38:00,
2013-08-29 14:40:00,78.1,66.7,29.96,ENE,64,7.0,11.0,68,0.00,,,0.00,VWS V14.01,2013-08-29 18:40:00,
2013-08-29 14:41:00,78.1,66.7,29.96,ENE,60,5.0,12.0,68,0.00,,,0.00,VWS V14.01,2013-08-29 18:41:00,
2013-08-29 14:46:00,77.9,66.9,29.96,ENE,74,8.0,12.0,69,0.00,,,0.00,VWS V14.01,2013-08-29 18:46:00,
2013-08-29 14:47:00,77.9,66.9,29.96,ENE,65,5.0,12.0,69,0.00,,,0.00,VWS V14.01,2013-08-29 18:47:00,
2013-08-29 14:51:00,78.1,67.5,29.96,ENE,62,6.0,12.0,70,0.00,,,0.00,VWS V14.01,2013-08-29 18:51:00,
2013-08-29 14:52:00,78.3,67.3,29.96,ENE,61,8.0,12.0,69,0.00,,,0.00,VWS V14.01,2013-08-29 18:52:00,
2013-08-29 14:54:00,78.1,66.7,29.96,East,101,0.0,12.0,68,0.00,,,0.00,VWS V14.01,2013-08-29 18:54:00,
2013-08-29 14:55:00,78.3,66.9,29.96,ESE,106,2.0,12.0,68,0.00,,,0.00,VWS V14.01,2013-08-29 18:55:00,
2013-08-29 14:56:00,78.3,67.3,29.96,East,82,0.0,12.0,69,0.00,,,0.00,VWS V14.01,2013-08-29 18:56:00,
2013-08-29 14:58:00,78.3,67.3,29.96,NE,56,3.0,12.0,69,0.00,,,0.00,VWS V14.01,2013-08-29 18:58:00,
2013-08-29 14:59:00,78.3,67.3,29.96,ENE,72,3.0,12.0,69,0.00,,,0.00,VWS V14.01,2013-08-29 18:59:00,
2013-08-29 15:01:00,78.5,67.5,29.96,East,88,2.0,12.0,69,0.00,,,0.00,VWS V14.01,2013-08-29 19:01:00,
2013-08-29 15:03:00,78.3,66.9,29.96,ENE,60,3.0,12.0,68,0.00,,,0.00,VWS V14.01,2013-08-29 19:03:00,
2013-08-29 15:04:00,78.5,67.5,29.96,ENE,60,4.0,12.0,69,0.00,,,0.00,VWS V14.01,2013-08-29 19:04:00,
2013-08-29 15:08:00,78.3,67.3,29.96,NE,50,5.0,9.0,69,0.00,,,0.00,VWS V14.01,2013-08-29 19:08:00,
2013-08-29 15:09:00,78.3,67.3,29.96,ENE,72,0.0,9.0,69,0.00,,,0.00,VWS V14.01,2013-08-29 19:09:00,
2013-08-29 15:10:00,78.3,67.3,29.96,East,94,2.0,9.0,69,0.00,,,0.00,VWS V14.01,2013-08-29 19:10:00,
2013-08-29 15:12:00,78.5,67.5,29.96,ENE,74,6.0,9.0,69,0.00,,,0.00,VWS V14.01,2013-08-29 19:12:00,
2013-08-29 15:13:00,78.5,67.5,29.96,ENE,78,4.0,9.0,69,0.00,,,0.00,VWS V14.01,2013-08-29 19:13:00,
2013-08-29 15:15:00,78.6,67.6,29.96,NE,52,8.0,9.0,69,0.00,,,0.00,VWS V14.01,2013-08-29 19:15:00,
2013-08-29 15:16:00,78.6,67.2,29.96,East,98,7.0,10.0,68,0.00,,,0.00,VWS V14.01,2013-08-29 19:16:00,
2013-08-29 15:17:00,78.6,67.2,29.96,ESE,109,2.0,10.0,68,0.00,,,0.00,VWS V14.01,2013-08-29 19:17:00,
2013-08-29 15:22:00,78.6,67.2,29.96,NE,51,5.0,10.0,68,0.00,,,0.00,VWS V14.01,2013-08-29 19:22:00,
2013-08-29 15:23:00,78.6,67.2,29.96,ENE,57,2.0,10.0,68,0.00,,,0.00,VWS V14.01,2013-08-29 19:23:00,
2013-08-29 15:25:00,78.8,67.4,29.96,East,90,1.0,10.0,68,0.00,,,0.00,VWS V14.01,2013-08-29 19:25:00,
2013-08-29 15:27:00,78.8,67.4,29.96,ENE,78,4.0,10.0,68,0.00,,,0.00,VWS V14.01,2013-08-29 19:27:00,
2013-08-29 15:28:00,78.8,67.4,29.96,East,88,1.0,10.0,68,0.00,,,0.00,VWS V14.01,2013-08-29 19:28:00,
2013-08-29 15:29:00,78.8,67.8,29.96,ENE,74,4.0,10.0,69,0.00,,,0.00,VWS V14.01,2013-08-29 19:29:00,
2013-08-29 15:30:00,78.8,67.4,29.96,East,82,3.0,10.0,68,0.00,,,0.00,VWS V14.01,2013-08-29 19:30:00,
2013-08-29 15:33:00,79.0,67.6,29.96,ENE,74,6.0,11.0,68,0.00,,,0.00,VWS V14.01,2013-08-29 19:33:00,
2013-08-29 15:35:00,79.0,67.6,29.96,ENE,61,3.0,11.0,68,0.00,,,0.00,VWS V14.01,2013-08-29 19:35:00,
2013-08-29 15:38:00,79.2,67.7,29.96,NE,50,8.0,8.0,68,0.00,,,0.00,VWS V14.01,2013-08-29 19:38:00,
2013-08-29 15:40:00,79.2,67.7,29.96,ENE,76,0.0,8.0,68,0.00,,,0.00,VWS V14.01,2013-08-29 19:40:00,
2013-08-29 15:43:00,79.2,67.3,29.96,East,93,0.0,8.0,67,0.00,,,0.00,VWS V14.01,2013-08-29 19:43:00,
2013-08-29 15:45:00,79.2,67.3,29.96,East,84,3.0,8.0,67,0.00,,,0.00,VWS V14.01,2013-08-29 19:45:00,
2013-08-29 15:48:00,79.4,67.5,29.96,East,87,0.0,8.0,67,0.00,,,0.00,VWS V14.01,2013-08-29 19:48:00,
2013-08-29 15:49:00,79.4,67.5,29.96,ENE,76,0.0,8.0,67,0.00,,,0.00,VWS V14.01,2013-08-29 19:49:00,
2013-08-29 15:50:00,79.6,68.1,29.96,ENE,59,2.0,8.0,68,0.00,,,0.00,VWS V14.01,2013-08-29 19:50:00,
2013-08-29 15:51:00,79.6,67.7,29.96,East,80,3.0,8.0,67,0.00,,,0.00,VWS V14.01,2013-08-29 19:51:00,
2013-08-29 15:53:00,79.6,67.2,29.96,East,93,0.0,8.0,66,0.00,,,0.00,VWS V14.01,2013-08-29 19:53:00,
2013-08-29 15:54:00,79.6,67.2,29.96,East,87,3.0,8.0,66,0.00,,,0.00,VWS V14.01,2013-08-29 19:54:00,
2013-08-29 15:56:00,79.6,67.2,29.96,East,83,2.0,8.0,66,0.00,,,0.00,VWS V14.01,2013-08-29 19:56:00,
2013-08-29 15:58:00,79.6,67.2,29.96,ENE,69,0.0,8.0,66,0.00,,,0.00,VWS V14.01,2013-08-29 19:58:00,
2013-08-29 16:00:00,79.8,67.4,29.96,ENE,69,0.0,8.0,66,0.00,,,0.00,VWS V14.01,2013-08-29 20:00:00,
2013-08-29 16:03:00,79.9,67.5,29.96,East,86,4.0,9.0,66,0.00,,,0.00,VWS V14.01,2013-08-29 20:03:00,
2013-08-29 16:05:00,79.9,67.5,29.96,East,90,4.0,9.0,66,0.00,,,0.00,VWS V14.01,2013-08-29 20:05:00,
2013-08-29 16:08:00,80.1,67.7,29.96,East,97,0.0,8.0,66,0.00,,,0.00,VWS V14.01,2013-08-29 20:08:00,
2013-08-29 16:10:00,80.1,67.7,29.96,ESE,107,7.0,8.0,66,0.00,,,0.00,VWS V14.01,2013-08-29 20:10:00,
2013-08-29 16:11:00,80.3,68.3,29.96,East,101,7.0,8.0,67,0.00,,,0.00,VWS V14.01,2013-08-29 20:11:00,
2013-08-29 16:13:00,80.3,67.9,29.96,ESE,103,0.0,8.0,66,0.00,,,0.00,VWS V14.01,2013-08-29 20:13:00,
2013-08-29 16:14:00,80.3,68.3,29.96,ESE,112,4.0,8.0,67,0.00,,,0.00,VWS V14.01,2013-08-29 20:14:00,
2013-08-29 16:16:00,80.3,68.3,29.96,East,91,5.0,8.0,67,0.00,,,0.00,VWS V14.01,2013-08-29 20:16:00,
2013-08-29 16:18:00,80.3,68.3,29.96,ESE,110,4.0,8.0,67,0.00,,,0.00,VWS V14.01,2013-08-29 20:18:00,
2013-08-29 16:20:00,80.1,68.2,29.96,ESE,121,0.0,8.0,67,0.00,,,0.00,VWS V14.01,2013-08-29 20:20:00,
2013-08-29 16:21:00,80.1,68.2,29.96,East,98,5.0,8.0,67,0.00,,,0.00,VWS V14.01,2013-08-29 20:21:00,
2013-08-29 16:22:00,80.1,68.2,29.96,ENE,78,1.0,8.0,67,0.00,,,0.00,VWS V14.01,2013-08-29 20:22:00,
2013-08-29 16:24:00,80.1,67.7,29.96,East,86,0.0,8.0,66,0.00,,,0.00,VWS V14.01,2013-08-29 20:24:00,
2013-08-29 16:25:00,80.1,67.7,29.96,ESE,110,6.0,8.0,66,0.00,,,0.00,VWS V14.01,2013-08-29 20:25:00,
2013-08-29 16:27:00,79.9,67.5,29.96,East,99,0.0,8.0,66,0.00,,,0.00,VWS V14.01,2013-08-29 20:27:00,
2013-08-29 16:29:00,79.9,67.5,29.96,East,80,7.0,9.0,66,0.00,,,0.00,VWS V14.01,2013-08-29 20:29:00,
2013-08-29 16:31:00,79.8,67.4,29.96,East,87,3.0,9.0,66,0.00,,,0.00,VWS V14.01,2013-08-29 20:31:00,
2013-08-29 16:33:00,79.6,66.8,29.96,East,100,2.0,9.0,65,0.00,,,0.00,VWS V14.01,2013-08-29 20:33:00,
2013-08-29 16:34:00,79.4,66.6,29.96,ESE,105,1.0,9.0,65,0.00,,,0.00,VWS V14.01,2013-08-29 20:34:00,
2013-08-29 16:36:00,79.4,67.5,29.96,East,83,2.0,6.0,67,0.00,,,0.00,VWS V14.01,2013-08-29 20:36:00,
2013-08-29 16:38:00,79.2,67.3,29.96,East,86,3.0,7.0,67,0.00,,,0.00,VWS V14.01,2013-08-29 20:38:00,
2013-08-29 16:39:00,79.2,67.3,29.96,East,88,0.0,7.0,67,0.00,,,0.00,VWS V14.01,2013-08-29 20:39:00,
2013-08-29 16:40:00,79.2,67.3,29.96,East,92,2.0,8.0,67,0.00,,,0.00,VWS V14.01,2013-08-29 20:40:00,
2013-08-29 16:43:00,79.2,66.9,29.96,ESE,109,5.0,9.0,66,0.00,,,0.00,VWS V14.01,2013-08-29 20:43:00,
2013-08-29 16:45:00,79.2,67.3,29.96,ESE,109,5.0,9.0,67,0.00,,,0.00,VWS V14.01,2013-08-29 20:45:00,
2013-08-29 16:47:00,79.4,67.9,29.96,East,99,4.0,9.0,68,0.00,,,0.00,VWS V14.01,2013-08-29 20:47:00,
2013-08-29 16:49:00,79.4,67.5,29.96,East,80,2.0,9.0,67,0.00,,,0.00,VWS V14.01,2013-08-29 20:49:00,
2013-08-29 16:52:00,79.4,67.1,29.96,ENE,76,4.0,11.0,66,0.00,,,0.00,VWS V14.01,2013-08-29 20:52:00,
2013-08-29 16:53:00,79.4,67.1,29.96,East,80,1.0,11.0,66,0.00,,,0.00,VWS V14.01,2013-08-29 20:53:00,
2013-08-29 16:54:00,79.4,67.1,29.96,ESE,114,7.0,11.0,66,0.00,,,0.00,VWS V14.01,2013-08-29 20:54:00,
2013-08-29 16:58:00,79.6,67.2,29.96,East,98,0.0,11.0,66,0.00,,,0.00,VWS V14.01,2013-08-29 20:58:00,
2013-08-29 16:59:00,79.6,66.8,29.96,East,81,5.0,11.0,65,0.00,,,0.00,VWS V14.01,2013-08-29 20:59:00,
2013-08-29 17:01:00,79.6,67.2,29.96,ESE,111,0.0,11.0,66,0.00,,,0.00,VWS V14.01,2013-08-29 21:01:00,
2013-08-29 17:04:00,79.8,67.4,29.96,East,98,4.0,11.0,66,0.00,,,0.00,VWS V14.01,2013-08-29 21:04:00,
2013-08-29 17:05:00,79.6,66.8,29.96,ESE,107,0.0,11.0,65,0.00,,,0.00,VWS V14.01,2013-08-29 21:05:00,
2013-08-29 17:10:00,79.9,67.1,29.96,ESE,107,0.0,8.0,65,0.00,,,0.00,VWS V14.01,2013-08-29 21:10:00,
2013-08-29 17:11:00,79.9,67.1,29.96,ESE,113,0.0,8.0,65,0.00,,,0.00,VWS V14.01,2013-08-29 21:11:00,
2013-08-29 17:12:00,79.9,67.1,29.96,ESE,117,5.0,8.0,65,0.00,,,0.00,VWS V14.01,2013-08-29 21:12:00,
2013-08-29 17:15:00,80.1,67.7,29.96,ESE,121,1.0,8.0,66,0.00,,,0.00,VWS V14.01,2013-08-29 21:15:00,
2013-08-29 17:16:00,80.1,67.7,29.96,ESE,112,1.0,8.0,66,0.00,,,0.00,VWS V14.01,2013-08-29 21:16:00,
2013-08-29 17:17:00,80.3,67.5,29.96,ESE,113,0.0,8.0,65,0.00,,,0.00,VWS V14.01,2013-08-29 21:17:00,
2013-08-29 17:18:00,80.3,67.5,29.96,East,101,7.0,9.0,65,0.00,,,0.00,VWS V14.01,2013-08-29 21:18:00,
2013-08-29 17:19:00,80.3,67.5,29.96,ESE,112,0.0,9.0,65,0.00,,,0.00,VWS V14.01,2013-08-29 21:19:00,
2013-08-29 17:23:00,80.1,67.7,29.96,ESE,113,1.0,9.0,66,0.00,,,0.00,VWS V14.01,2013-08-29 21:23:00,
2013-08-29 17:24:00,80.1,67.7,29.96,East,98,4.0,9.0,66,0.00,,,0.00,VWS V14.01,2013-08-29 21:24:00,
2013-08-29 17:26:00,80.1,67.7,29.96,ESE,110,0.0,9.0,66,0.00,,,0.00,VWS V14.01,2013-08-29 21:26:00,
2013-08-29 17:31:00,80.1,67.3,29.96,ESE,114,1.0,9.0,65,0.00,,,0.00,VWS V14.01,2013-08-29 21:31:00,
2013-08-29 17:33:00,79.9,67.1,29.96,ESE,121,8.0,9.0,65,0.00,,,0.00,VWS V14.01,2013-08-29 21:33:00,
2013-08-29 17:35:00,79.9,67.5,29.96,East,87,0.0,9.0,66,0.00,,,0.00,VWS V14.01,2013-08-29 21:35:00,
2013-08-29 17:36:00,79.9,67.5,29.96,East,96,4.0,6.0,66,0.00,,,0.00,VWS V14.01,2013-08-29 21:36:00,
2013-08-29 17:37:00,79.9,67.5,29.96,ESE,113,7.0,8.0,66,0.00,,,0.00,VWS V14.01,2013-08-29 21:37:00,
2013-08-29 17:38:00,79.9,67.5,29.96,ESE,111,6.0,8.0,66,0.00,,,0.00,VWS V14.01,2013-08-29 21:38:00,
2013-08-29 17:41:00,79.8,67.4,29.96,ESE,111,6.0,8.0,66,0.00,,,0.00,VWS V14.01,2013-08-29 21:41:00,
2013-08-29 17:43:00,79.8,67.9,29.96,SE,131,7.0,8.0,67,0.00,,,0.00,VWS V14.01,2013-08-29 21:43:00,
2013-08-29 17:44:00,79.9,68.0,29.96,SE,130,5.0,8.0,67,0.00,,,0.00,VWS V14.01,2013-08-29 21:44:00,
2013-08-29 17:49:00,79.6,68.5,29.96,SE,129,5.0,10.0,69,0.00,,,0.00,VWS V14.01,2013-08-29 21:49:00,
2013-08-29 17:50:00,79.4,68.3,29.96,ESE,121,5.0,11.0,69,0.00,,,0.00,VWS V14.01,2013-08-29 21:50:00,
2013-08-29 17:51:00,79.4,68.8,29.96,SE,130,0.0,11.0,70,0.00,,,0.00,VWS V14.01,2013-08-29 21:51:00,
2013-08-29 17:53:00,79.0,68.4,29.96,SE,128,8.0,11.0,70,0.00,,,0.00,VWS V14.01,2013-08-29 21:53:00,
2013-08-29 17:55:00,78.8,68.2,29.96,SE,133,7.0,11.0,70,0.00,,,0.00,VWS V14.01,2013-08-29 21:55:00,
2013-08-29 17:58:00,78.3,68.1,29.96,SE,130,8.0,11.0,71,0.00,,,0.00,VWS V14.01,2013-08-29 21:58:00,
2013-08-29 17:59:00,78.3,68.5,29.96,SE,124,6.0,11.0,72,0.00,,,0.00,VWS V14.01,2013-08-29 21:59:00,
2013-08-29 18:02:00,77.7,68.0,29.96,SE,141,2.0,11.0,72,0.00,,,0.00,VWS V14.01,2013-08-29 22:02:00,
2013-08-29 18:04:00,77.6,67.9,29.96,ESE,111,2.0,11.0,72,0.00,,,0.00,VWS V14.01,2013-08-29 22:04:00,
2013-08-29 18:05:00,77.4,68.1,29.96,ESE,111,0.0,11.0,73,0.00,,,0.00,VWS V14.01,2013-08-29 22:05:00,
2013-08-29 18:07:00,77.2,67.9,29.96,SE,137,2.0,7.0,73,0.00,,,0.00,VWS V14.01,2013-08-29 22:07:00,
2013-08-29 18:09:00,76.8,67.9,29.96,SE,141,2.0,7.0,74,0.00,,,0.00,VWS V14.01,2013-08-29 22:09:00,
2013-08-29 18:11:00,76.7,67.8,29.96,SE,139,8.0,9.0,74,0.00,,,0.00,VWS V14.01,2013-08-29 22:11:00,
2013-08-29 18:13:00,76.7,67.8,29.96,SE,138,4.0,9.0,74,0.00,,,0.00,VWS V14.01,2013-08-29 22:13:00,
2013-08-29 18:15:00,76.5,68.0,29.96,SE,128,4.0,9.0,75,0.00,,,0.00,VWS V14.01,2013-08-29 22:15:00,
2013-08-29 18:16:00,76.5,68.0,29.96,SE,128,2.0,9.0,75,0.00,,,0.00,VWS V14.01,2013-08-29 22:16:00,
2013-08-29 18:17:00,76.3,67.8,29.96,SE,128,0.0,9.0,75,0.00,,,0.00,VWS V14.01,2013-08-29 22:17:00,
2013-08-29 18:18:00,76.3,67.8,29.96,SE,128,0.0,9.0,75,0.00,,,0.00,VWS V14.01,2013-08-29 22:18:00,
2013-08-29 18:20:00,76.3,67.8,29.95,SE,126,1.0,9.0,75,0.00,,,0.00,VWS V14.01,2013-08-29 22:20:00,
2013-08-29 18:22:00,76.1,67.6,29.95,SE,132,6.0,9.0,75,0.00,,,0.00,VWS V14.01,2013-08-29 22:22:00,
2013-08-29 18:23:00,76.1,67.6,29.95,SE,134,5.0,9.0,75,0.00,,,0.00,VWS V14.01,2013-08-29 22:23:00,
2013-08-29 18:24:00,76.0,67.5,29.95,SE,135,2.0,9.0,75,0.00,,,0.00,VWS V14.01,2013-08-29 22:24:00,
2013-08-29 18:26:00,75.8,67.7,29.95,SE,140,2.0,9.0,76,0.00,,,0.00,VWS V14.01,2013-08-29 22:26:00,
2013-08-29 18:27:00,75.8,67.7,29.95,SE,140,6.0,9.0,76,0.00,,,0.00,VWS V14.01,2013-08-29 22:27:00,
2013-08-29 18:28:00,75.6,67.5,29.95,SE,140,4.0,9.0,76,0.00,,,0.00,VWS V14.01,2013-08-29 22:28:00,
2013-08-29 18:29:00,75.6,67.5,29.95,SE,140,4.0,9.0,76,0.00,,,0.00,VWS V14.01,2013-08-29 22:29:00,
2013-08-29 18:31:00,75.3,67.6,29.95,ESE,115,0.0,9.0,77,0.00,,,0.00,VWS V14.01,2013-08-29 22:31:00,
2013-08-29 18:32:00,75.3,67.6,29.95,ESE,115,4.0,9.0,77,0.00,,,0.00,VWS V14.01,2013-08-29 22:32:00,
2013-08-29 18:36:00,74.9,67.6,29.96,SE,144,2.0,6.0,78,0.00,,,0.00,VWS V14.01,2013-08-29 22:36:00,
2013-08-29 18:37:00,74.9,67.6,29.96,SE,144,0.0,7.0,78,0.00,,,0.00,VWS V14.01,2013-08-29 22:37:00,
2013-08-29 18:38:00,74.7,67.4,29.96,SE,144,0.0,7.0,78,0.00,,,0.00,VWS V14.01,2013-08-29 22:38:00,
2013-08-29 18:39:00,74.7,67.4,29.96,SE,144,0.0,7.0,78,0.00,,,0.00,VWS V14.01,2013-08-29 22:39:00,
2013-08-29 18:42:00,74.4,67.1,29.96,SE,144,2.0,7.0,78,0.00,,,0.00,VWS V14.01,2013-08-29 22:42:00,
2013-08-29 18:43:00,74.4,67.1,29.96,SE,144,0.0,7.0,78,0.00,,,0.00,VWS V14.01,2013-08-29 22:43:00,
2013-08-29 18:45:00,74.2,67.3,29.96,SE,144,2.0,7.0,79,0.00,,,0.00,VWS V14.01,2013-08-29 22:45:00,
2013-08-29 18:46:00,74.2,67.3,29.96,SE,144,6.0,7.0,79,0.00,,,0.00,VWS V14.01,2013-08-29 22:46:00,
2013-08-29 18:48:00,74.0,67.1,29.96,SE,144,0.0,7.0,79,0.00,,,0.00,VWS V14.01,2013-08-29 22:48:00,
2013-08-29 18:51:00,73.9,67.0,29.96,SE,136,4.0,7.0,79,0.00,,,0.00,VWS V14.01,2013-08-29 22:51:00,
2013-08-29 18:53:00,73.7,66.8,29.96,SE,136,0.0,7.0,79,0.00,,,0.00,VWS V14.01,2013-08-29 22:53:00,
2013-08-29 18:55:00,73.7,67.2,29.96,SE,136,0.0,7.0,80,0.00,,,0.00,VWS V14.01,2013-08-29 22:55:00,
2013-08-29 18:56:00,73.5,67.0,29.96,SE,136,0.0,7.0,80,0.00,,,0.00,VWS V14.01,2013-08-29 22:56:00,
2013-08-29 18:59:00,73.5,67.0,29.96,SE,136,0.0,7.0,80,0.00,,,0.00,VWS V14.01,2013-08-29 22:59:00,
2013-08-29 19:00:00,73.3,66.8,29.96,SE,136,2.0,7.0,80,0.00,,,0.00,VWS V14.01,2013-08-29 23:00:00,
2013-08-29 19:01:00,73.3,66.8,29.96,SE,136,0.0,7.0,80,0.00,,,0.00,VWS V14.01,2013-08-29 23:01:00,
2013-08-29 19:03:00,73.2,66.7,29.96,SE,136,0.0,7.0,80,0.00,,,0.00,VWS V14.01,2013-08-29 23:03:00,
2013-08-29 19:05:00,73.2,67.0,29.97,SE,136,0.0,7.0,81,0.00,,,0.00,VWS V14.01,2013-08-29 23:05:00,
2013-08-29 19:10:00,73.0,66.8,29.97,SE,136,0.0,0.0,81,0.00,,,0.00,VWS V14.01,2013-08-29 23:10:00,
2013-08-29 19:12:00,73.0,66.8,29.97,SE,136,0.0,0.0,81,0.00,,,0.00,VWS V14.01,2013-08-29 23:12:00,
2013-08-29 19:13:00,73.0,66.8,29.97,SE,136,0.0,0.0,81,0.00,,,0.00,VWS V14.01,2013-08-29 23:13:00,
2013-08-29 19:15:00,73.0,66.8,29.97,SE,136,0.0,0.0,81,0.00,,,0.00,VWS V14.01,2013-08-29 23:15:00,
2013-08-29 19:17:00,72.8,67.0,29.97,SE,136,0.0,0.0,82,0.00,,,0.00,VWS V14.01,2013-08-29 23:17:00,
2013-08-29 19:18:00,72.8,67.0,29.97,SE,136,0.0,0.0,82,0.00,,,0.00,VWS V14.01,2013-08-29 23:18:00,
2013-08-29 19:20:00,72.8,67.0,29.97,SE,136,0.0,0.0,82,0.00,,,0.00,VWS V14.01,2013-08-29 23:20:00,
2013-08-29 19:21:00,72.8,67.0,29.97,SE,136,0.0,0.0,82,0.00,,,0.00,VWS V14.01,2013-08-29 23:21:00,
2013-08-29 19:24:00,72.8,67.0,29.97,SE,136,0.0,0.0,82,0.00,,,0.00,VWS V14.01,2013-08-29 23:24:00,
2013-08-29 19:26:00,72.7,66.9,29.97,SE,136,0.0,0.0,82,0.00,,,0.00,VWS V14.01,2013-08-29 23:26:00,
2013-08-29 19:29:00,72.7,66.9,29.97,SE,135,0.0,0.0,82,0.00,,,0.00,VWS V14.01,2013-08-29 23:29:00,
2013-08-29 19:30:00,72.7,66.9,29.97,SE,136,0.0,0.0,82,0.00,,,0.00,VWS V14.01,2013-08-29 23:30:00,
2013-08-29 19:31:00,72.7,66.9,29.97,SE,136,0.0,0.0,82,0.00,,,0.00,VWS V14.01,2013-08-29 23:31:00,
2013-08-29 19:32:00,72.5,66.7,29.97,SE,136,0.0,0.0,82,0.00,,,0.00,VWS V14.01,2013-08-29 23:32:00,
2013-08-29 19:33:00,72.5,66.7,29.97,SE,136,0.0,0.0,82,0.00,,,0.00,VWS V14.01,2013-08-29 23:33:00,
2013-08-29 19:34:00,72.5,66.7,29.97,SE,136,0.0,0.0,82,0.00,,,0.00,VWS V14.01,2013-08-29 23:34:00,
2013-08-29 19:36:00,72.5,66.7,29.97,SE,136,0.0,0.0,82,0.00,,,0.00,VWS V14.01,2013-08-29 23:36:00,
2013-08-29 19:37:00,72.5,66.7,29.97,SE,136,0.0,0.0,82,0.00,,,0.00,VWS V14.01,2013-08-29 23:37:00,
2013-08-29 19:38:00,72.3,66.8,29.97,SE,136,0.0,0.0,83,0.00,,,0.00,VWS V14.01,2013-08-29 23:38:00,
2013-08-29 19:39:00,72.3,66.8,29.97,SE,135,0.0,0.0,83,0.00,,,0.00,VWS V14.01,2013-08-29 23:39:00,
2013-08-29 19:40:00,72.3,66.8,29.97,SE,136,0.0,0.0,83,0.00,,,0.00,VWS V14.01,2013-08-29 23:40:00,
2013-08-29 19:42:00,72.3,66.8,29.97,SE,136,0.0,0.0,83,0.00,,,0.00,VWS V14.01,2013-08-29 23:42:00,
2013-08-29 19:44:00,72.1,66.7,29.97,SE,136,0.0,0.0,83,0.00,,,0.00,VWS V14.01,2013-08-29 23:44:00,
2013-08-29 19:45:00,72.1,66.7,29.97,SE,136,0.0,0.0,83,0.00,,,0.00,VWS V14.01,2013-08-29 23:45:00,
2013-08-29 19:47:00,72.1,66.7,29.97,SE,135,0.0,0.0,83,0.00,,,0.00,VWS V14.01,2013-08-29 23:47:00,
2013-08-29 19:48:00,72.1,66.7,29.97,SE,136,0.0,0.0,83,0.00,,,0.00,VWS V14.01,2013-08-29 23:48:00,
2013-08-29 19:49:00,72.0,66.6,29.97,SE,136,0.0,1.0,83,0.00,,,0.00,VWS V14.01,2013-08-29 23:49:00,
2013-08-29 19:51:00,72.0,66.6,29.97,SE,135,0.0,1.0,83,0.00,,,0.00,VWS V14.01,2013-08-29 23:51:00,
2013-08-29 19:55:00,71.8,66.7,29.97,SE,136,0.0,1.0,84,0.00,,,0.00,VWS V14.01,2013-08-29 23:55:00,
2013-08-29 19:56:00,71.8,66.7,29.97,SE,135,0.0,1.0,84,0.00,,,0.00,VWS V14.01,2013-08-29 23:56:00,
2013-08-29 19:58:00,71.6,66.5,29.97,SE,136,0.0,1.0,84,0.00,,,0.00,VWS V14.01,2013-08-29 23:58:00,
2013-08-29 19:59:00,71.6,66.5,29.97,SE,135,0.0,1.0,84,0.00,,,0.00,VWS V14.01,2013-08-29 23:59:00,
2013-08-29 20:00:00,71.6,66.5,29.97,SE,135,0.0,1.0,84,0.00,,,0.00,VWS V14.01,2013-08-30 00:00:00,
2013-08-29 20:03:00,71.5,66.4,29.97,SE,136,0.0,1.0,84,0.00,,,0.00,VWS V14.01,2013-08-30 00:03:00,
2013-08-29 20:05:00,71.5,66.4,29.97,SE,136,0.0,1.0,84,0.00,,,0.00,VWS V14.01,2013-08-30 00:05:00,
2013-08-29 20:06:00,71.5,66.4,29.97,SE,136,0.0,0.0,84,0.00,,,0.00,VWS V14.01,2013-08-30 00:06:00,
2013-08-29 20:07:00,71.3,66.2,29.97,SE,136,0.0,0.0,84,0.00,,,0.00,VWS V14.01,2013-08-30 00:07:00,
2013-08-29 20:10:00,71.3,66.6,29.97,SE,136,0.0,1.0,85,0.00,,,0.00,VWS V14.01,2013-08-30 00:10:00,
2013-08-29 20:12:00,71.3,66.6,29.97,SE,136,0.0,1.0,85,0.00,,,0.00,VWS V14.01,2013-08-30 00:12:00,
2013-08-29 20:14:00,71.3,66.6,29.97,SE,135,0.0,1.0,85,0.00,,,0.00,VWS V14.01,2013-08-30 00:14:00,
2013-08-29 20:16:00,71.1,66.7,29.97,SE,135,0.0,1.0,86,0.00,,,0.00,VWS V14.01,2013-08-30 00:16:00,
2013-08-29 20:19:00,71.1,66.7,29.97,SE,136,0.0,5.0,86,0.00,,,0.00,VWS V14.01,2013-08-30 00:19:00,
2013-08-29 20:20:00,71.1,66.7,29.97,SE,136,0.0,5.0,86,0.00,,,0.00,VWS V14.01,2013-08-30 00:20:00,
2013-08-29 20:21:00,71.1,66.7,29.97,SE,135,0.0,5.0,86,0.00,,,0.00,VWS V14.01,2013-08-30 00:21:00,
2013-08-29 20:24:00,71.1,66.7,29.97,ESE,117,2.0,6.0,86,0.00,,,0.00,VWS V14.01,2013-08-30 00:24:00,
2013-08-29 20:27:00,70.9,66.8,29.97,ESE,117,0.0,7.0,87,0.00,,,0.00,VWS V14.01,2013-08-30 00:27:00,
2013-08-29 20:30:00,70.9,66.8,29.97,ESE,119,0.0,7.0,87,0.00,,,0.00,VWS V14.01,2013-08-30 00:30:00,
2013-08-29 20:32:00,70.9,66.8,29.97,ESE,119,0.0,7.0,87,0.00,,,0.00,VWS V14.01,2013-08-30 00:32:00,
2013-08-29 20:33:00,70.9,66.8,29.97,ESE,119,0.0,7.0,87,0.00,,,0.00,VWS V14.01,2013-08-30 00:33:00,
2013-08-29 20:35:00,70.9,66.8,29.98,ESE,118,0.0,7.0,87,0.00,,,0.00,VWS V14.01,2013-08-30 00:35:00,
2013-08-29 20:36:00,70.9,66.8,29.98,ESE,119,0.0,0.0,87,0.00,,,0.00,VWS V14.01,2013-08-30 00:36:00,
2013-08-29 20:38:00,70.9,66.8,29.98,ESE,119,1.0,7.0,87,0.00,,,0.00,VWS V14.01,2013-08-30 00:38:00,
2013-08-29 20:40:00,70.9,67.2,29.98,ESE,120,0.0,7.0,88,0.00,,,0.00,VWS V14.01,2013-08-30 00:40:00,
2013-08-29 20:41:00,70.9,67.2,29.98,ESE,114,0.0,7.0,88,0.00,,,0.00,VWS V14.01,2013-08-30 00:41:00,
2013-08-29 20:43:00,70.9,67.2,29.98,ESE,115,0.0,7.0,88,0.00,,,0.00,VWS V14.01,2013-08-30 00:43:00,
2013-08-29 20:45:00,70.9,67.2,29.98,ESE,106,2.0,7.0,88,0.00,,,0.00,VWS V14.01,2013-08-30 00:45:00,
2013-08-29 20:46:00,70.9,67.2,29.98,SE,124,4.0,7.0,88,0.00,,,0.00,VWS V14.01,2013-08-30 00:46:00,
2013-08-29 20:47:00,71.1,67.4,29.98,ESE,117,4.0,7.0,88,0.00,,,0.00,VWS V14.01,2013-08-30 00:47:00,
2013-08-29 20:48:00,71.1,67.4,29.98,ESE,106,2.0,7.0,88,0.00,,,0.00,VWS V14.01,2013-08-30 00:48:00,
2013-08-29 20:51:00,71.1,67.4,29.98,ESE,112,6.0,8.0,88,0.00,,,0.00,VWS V14.01,2013-08-30 00:51:00,
2013-08-29 20:53:00,71.1,67.4,29.98,ESE,105,2.0,8.0,88,0.00,,,0.00,VWS V14.01,2013-08-30 00:53:00,
2013-08-29 20:54:00,71.1,67.4,29.98,ESE,103,5.0,9.0,88,0.00,,,0.00,VWS V14.01,2013-08-30 00:54:00,
2013-08-29 20:56:00,71.1,67.4,29.98,ESE,111,4.0,9.0,88,0.00,,,0.00,VWS V14.01,2013-08-30 00:56:00,
2013-08-29 20:57:00,71.1,67.4,29.98,ESE,119,4.0,9.0,88,0.00,,,0.00,VWS V14.01,2013-08-30 00:57:00,
2013-08-29 20:59:00,71.1,67.4,29.98,ESE,105,5.0,11.0,88,0.00,,,0.00,VWS V14.01,2013-08-30 00:59:00,
2013-08-29 21:01:00,71.1,67.4,29.98,ESE,110,7.0,11.0,88,0.00,,,0.00,VWS V14.01,2013-08-30 01:01:00,
2013-08-29 21:02:00,71.1,67.4,29.98,ESE,117,7.0,11.0,88,0.00,,,0.00,VWS V14.01,2013-08-30 01:02:00,
2013-08-29 21:04:00,71.1,67.4,29.98,ESE,103,5.0,11.0,88,0.00,,,0.00,VWS V14.01,2013-08-30 01:04:00,
2013-08-29 21:05:00,71.1,67.4,29.99,ESE,107,6.0,11.0,88,0.00,,,0.00,VWS V14.01,2013-08-30 01:05:00,
2013-08-29 21:06:00,71.1,67.4,29.99,ESE,113,5.0,7.0,88,0.00,,,0.00,VWS V14.01,2013-08-30 01:06:00,
2013-08-29 21:08:00,71.1,67.4,29.99,ESE,109,5.0,8.0,88,0.00,,,0.00,VWS V14.01,2013-08-30 01:08:00,
2013-08-29 21:09:00,71.1,67.4,29.99,ESE,111,2.0,8.0,88,0.00,,,0.00,VWS V14.01,2013-08-30 01:09:00,
2013-08-29 21:10:00,71.1,67.4,29.99,ESE,103,6.0,8.0,88,0.00,,,0.00,VWS V14.01,2013-08-30 01:10:00,
2013-08-29 21:13:00,71.1,67.4,29.99,ESE,103,6.0,8.0,88,0.00,,,0.00,VWS V14.01,2013-08-30 01:13:00,
2013-08-29 21:15:00,71.1,67.4,29.99,ESE,117,2.0,9.0,88,0.00,,,0.00,VWS V14.01,2013-08-30 01:15:00,
2013-08-29 21:18:00,71.1,67.4,29.99,ESE,111,6.0,11.0,88,0.00,,,0.00,VWS V14.01,2013-08-30 01:18:00,
2013-08-29 21:20:00,71.1,67.4,29.99,ESE,123,6.0,11.0,88,0.00,,,0.00,VWS V14.01,2013-08-30 01:20:00,
2013-08-29 21:21:00,71.1,67.4,29.99,ESE,115,9.0,11.0,88,0.00,,,0.00,VWS V14.01,2013-08-30 01:21:00,
2013-08-29 21:23:00,71.1,67.4,29.99,ESE,111,7.0,13.0,88,0.00,,,0.00,VWS V14.01,2013-08-30 01:23:00,
2013-08-29 21:24:00,71.1,67.4,29.99,East,89,6.0,13.0,88,0.00,,,0.00,VWS V14.01,2013-08-30 01:24:00,
2013-08-29 21:26:00,71.1,67.4,29.99,ESE,123,6.0,13.0,88,0.00,,,0.00,VWS V14.01,2013-08-30 01:26:00,
2013-08-29 21:28:00,71.1,67.4,29.99,ESE,106,7.0,13.0,88,0.00,,,0.00,VWS V14.01,2013-08-30 01:28:00,
2013-08-29 21:30:00,71.1,67.4,29.99,ESE,113,8.0,13.0,88,0.00,,,0.00,VWS V14.01,2013-08-30 01:30:00,
2013-08-29 21:33:00,71.1,67.4,29.99,East,88,5.0,13.0,88,0.00,,,0.00,VWS V14.01,2013-08-30 01:33:00,
2013-08-29 21:34:00,71.1,67.4,29.99,SE,125,9.0,13.0,88,0.00,,,0.00,VWS V14.01,2013-08-30 01:34:00,
2013-08-29 21:36:00,70.9,67.2,29.99,ESE,122,7.0,11.0,88,0.00,,,0.00,VWS V14.01,2013-08-30 01:36:00,
2013-08-29 21:37:00,70.9,67.2,29.99,SE,125,5.0,11.0,88,0.00,,,0.00,VWS V14.01,2013-08-30 01:37:00,
2013-08-29 21:39:00,70.9,67.2,29.99,ESE,104,2.0,11.0,88,0.00,,,0.00,VWS V14.01,2013-08-30 01:39:00,
2013-08-29 21:40:00,70.9,67.2,29.99,ESE,113,4.0,11.0,88,0.00,,,0.00,VWS V14.01,2013-08-30 01:40:00,
2013-08-29 21:41:00,70.9,67.2,29.99,ESE,112,6.0,11.0,88,0.00,,,0.00,VWS V14.01,2013-08-30 01:41:00,
2013-08-29 21:46:00,70.8,67.1,29.99,ESE,109,0.0,11.0,88,0.00,,,0.00,VWS V14.01,2013-08-30 01:46:00,
2013-08-29 21:47:00,70.8,67.1,29.99,ESE,109,0.0,11.0,88,0.00,,,0.00,VWS V14.01,2013-08-30 01:47:00,
2013-08-29 21:49:00,70.8,67.1,29.99,SE,128,7.0,11.0,88,0.00,,,0.00,VWS V14.01,2013-08-30 01:49:00,
2013-08-29 21:51:00,70.8,67.1,29.99,East,96,4.0,11.0,88,0.00,,,0.00,VWS V14.01,2013-08-30 01:51:00,
2013-08-29 21:52:00,70.8,67.1,29.99,East,99,5.0,11.0,88,0.00,,,0.00,VWS V14.01,2013-08-30 01:52:00,
2013-08-29 21:55:00,70.8,67.1,29.99,ESE,110,2.0,11.0,88,0.00,,,0.00,VWS V14.01,2013-08-30 01:55:00,
2013-08-29 21:56:00,70.8,67.1,29.99,ESE,103,6.0,11.0,88,0.00,,,0.00,VWS V14.01,2013-08-30 01:56:00,
2013-08-29 21:57:00,70.8,67.1,29.99,East,94,0.0,11.0,88,0.00,,,0.00,VWS V14.01,2013-08-30 01:57:00,
2013-08-29 21:58:00,70.8,67.1,29.99,ESE,115,7.0,11.0,88,0.00,,,0.00,VWS V14.01,2013-08-30 01:58:00,
2013-08-29 22:01:00,70.8,67.1,29.99,ESE,113,7.0,11.0,88,0.00,,,0.00,VWS V14.01,2013-08-30 02:01:00,
2013-08-29 22:02:00,70.8,67.1,29.99,ESE,107,6.0,11.0,88,0.00,,,0.00,VWS V14.01,2013-08-30 02:02:00,
2013-08-29 22:03:00,70.8,67.1,29.99,ESE,121,5.0,11.0,88,0.00,,,0.00,VWS V14.01,2013-08-30 02:03:00,
2013-08-29 22:05:00,70.8,67.1,30.00,East,88,5.0,11.0,88,0.00,,,0.00,VWS V14.01,2013-08-30 02:05:00,
2013-08-29 22:07:00,70.6,66.9,30.00,ESE,115,7.0,7.0,88,0.00,,,0.00,VWS V14.01,2013-08-30 02:07:00,
2013-08-29 22:08:00,70.6,66.9,30.00,ESE,110,6.0,7.0,88,0.00,,,0.00,VWS V14.01,2013-08-30 02:08:00,
2013-08-29 22:10:00,70.6,66.9,30.00,ESE,107,0.0,7.0,88,0.00,,,0.00,VWS V14.01,2013-08-30 02:10:00,
2013-08-29 22:11:00,70.6,66.9,30.00,ESE,107,2.0,7.0,88,0.00,,,0.00,VWS V14.01,2013-08-30 02:11:00,
2013-08-29 22:13:00,70.6,66.6,30.00,ESE,114,5.0,7.0,87,0.00,,,0.00,VWS V14.01,2013-08-30 02:13:00,
2013-08-29 22:19:00,70.6,66.6,30.00,ESE,103,4.0,7.0,87,0.00,,,0.00,VWS V14.01,2013-08-30 02:19:00,
2013-08-29 22:20:00,70.6,66.6,29.99,East,92,6.0,9.0,87,0.00,,,0.00,VWS V14.01,2013-08-30 02:20:00,
2013-08-29 22:21:00,70.6,66.6,29.99,ESE,107,5.0,9.0,87,0.00,,,0.00,VWS V14.01,2013-08-30 02:21:00,
2013-08-29 22:24:00,70.6,66.6,29.99,ESE,106,4.0,11.0,87,0.00,,,0.00,VWS V14.01,2013-08-30 02:24:00,
2013-08-29 22:26:00,70.6,66.6,29.99,ESE,111,4.0,11.0,87,0.00,,,0.00,VWS V14.01,2013-08-30 02:26:00,
2013-08-29 22:29:00,70.4,66.3,29.99,ESE,111,7.0,11.0,87,0.00,,,0.00,VWS V14.01,2013-08-30 02:29:00,
2013-08-29 22:30:00,70.6,66.6,29.99,ESE,120,5.0,11.0,87,0.00,,,0.00,VWS V14.01,2013-08-30 02:30:00,
2013-08-29 22:31:00,70.6,66.6,29.99,ESE,121,2.0,11.0,87,0.00,,,0.00,VWS V14.01,2013-08-30 02:31:00,
2013-08-29 22:32:00,70.4,66.3,29.99,ESE,103,4.0,11.0,87,0.00,,,0.00,VWS V14.01,2013-08-30 02:32:00,
2013-08-29 22:33:00,70.4,66.3,29.99,East,100,1.0,11.0,87,0.00,,,0.00,VWS V14.01,2013-08-30 02:33:00,
2013-08-29 22:35:00,70.4,66.3,29.98,ESE,106,2.0,11.0,87,0.00,,,0.00,VWS V14.01,2013-08-30 02:35:00,
2013-08-29 22:37:00,70.4,66.3,29.98,ESE,113,4.0,7.0,87,0.00,,,0.00,VWS V14.01,2013-08-30 02:37:00,
2013-08-29 22:38:00,70.4,66.3,29.98,ESE,123,6.0,8.0,87,0.00,,,0.00,VWS V14.01,2013-08-30 02:38:00,
2013-08-29 22:40:00,70.4,66.3,29.98,ESE,119,8.0,8.0,87,0.00,,,0.00,VWS V14.01,2013-08-30 02:40:00,
2013-08-29 22:43:00,70.4,66.3,29.98,ESE,115,7.0,9.0,87,0.00,,,0.00,VWS V14.01,2013-08-30 02:43:00,
2013-08-29 22:44:00,70.6,66.6,29.98,ESE,121,5.0,9.0,87,0.00,,,0.00,VWS V14.01,2013-08-30 02:44:00,
2013-08-29 22:49:00,70.4,66.3,29.98,ESE,115,5.0,12.0,87,0.00,,,0.00,VWS V14.01,2013-08-30 02:49:00,
2013-08-29 22:50:00,70.4,66.3,29.99,ESE,119,1.0,12.0,87,0.00,,,0.00,VWS V14.01,2013-08-30 02:50:00,
2013-08-29 22:51:00,70.6,66.6,29.99,East,99,4.0,12.0,87,0.00,,,0.00,VWS V14.01,2013-08-30 02:51:00,
2013-08-29 22:52:00,70.4,66.3,29.99,ESE,102,8.0,12.0,87,0.00,,,0.00,VWS V14.01,2013-08-30 02:52:00,
2013-08-29 22:53:00,70.6,66.6,29.99,SE,131,8.0,12.0,87,0.00,,,0.00,VWS V14.01,2013-08-30 02:53:00,
2013-08-29 22:56:00,70.6,66.6,29.99,ESE,113,7.0,12.0,87,0.00,,,0.00,VWS V14.01,2013-08-30 02:56:00,
2013-08-29 22:57:00,70.6,66.6,29.99,ESE,119,9.0,12.0,87,0.00,,,0.00,VWS V14.01,2013-08-30 02:57:00,
2013-08-29 22:59:00,70.4,66.0,29.99,ESE,122,5.0,12.0,86,0.00,,,0.00,VWS V14.01,2013-08-30 02:59:00,
2013-08-29 23:01:00,70.4,66.0,29.99,ESE,115,7.0,12.0,86,0.00,,,0.00,VWS V14.01,2013-08-30 03:01:00,
2013-08-29 23:02:00,70.4,66.0,29.99,ESE,114,6.0,12.0,86,0.00,,,0.00,VWS V14.01,2013-08-30 03:02:00,
2013-08-29 23:04:00,70.4,66.0,29.99,ESE,106,4.0,12.0,86,0.00,,,0.00,VWS V14.01,2013-08-30 03:04:00,
2013-08-29 23:06:00,70.4,66.0,29.99,ESE,119,6.0,7.0,86,0.00,,,0.00,VWS V14.01,2013-08-30 03:06:00,
2013-08-29 23:07:00,70.4,66.0,29.99,East,89,1.0,8.0,86,0.00,,,0.00,VWS V14.01,2013-08-30 03:07:00,
2013-08-29 23:08:00,70.4,66.0,29.99,ESE,120,4.0,8.0,86,0.00,,,0.00,VWS V14.01,2013-08-30 03:08:00,
2013-08-29 23:09:00,70.4,66.0,29.99,ESE,114,6.0,8.0,86,0.00,,,0.00,VWS V14.01,2013-08-30 03:09:00,
2013-08-29 23:12:00,70.3,65.9,29.99,ESE,112,5.0,8.0,86,0.00,,,0.00,VWS V14.01,2013-08-30 03:12:00,
2013-08-29 23:13:00,70.3,65.9,29.99,ESE,107,1.0,8.0,86,0.00,,,0.00,VWS V14.01,2013-08-30 03:13:00,
2013-08-29 23:17:00,70.3,65.9,29.99,ESE,114,4.0,8.0,86,0.00,,,0.00,VWS V14.01,2013-08-30 03:17:00,
2013-08-29 23:20:00,70.4,66.0,29.99,ESE,116,1.0,8.0,86,0.00,,,0.00,VWS V14.01,2013-08-30 03:20:00,
2013-08-29 23:21:00,70.4,66.0,29.99,ESE,114,5.0,8.0,86,0.00,,,0.00,VWS V14.01,2013-08-30 03:21:00,
2013-08-29 23:23:00,70.4,66.0,29.99,ESE,103,4.0,8.0,86,0.00,,,0.00,VWS V14.01,2013-08-30 03:23:00,
2013-08-29 23:26:00,70.4,66.0,29.99,ESE,111,6.0,8.0,86,0.00,,,0.00,VWS V14.01,2013-08-30 03:26:00,
2013-08-29 23:28:00,70.4,66.0,29.99,ESE,108,4.0,8.0,86,0.00,,,0.00,VWS V14.01,2013-08-30 03:28:00,
2013-08-29 23:31:00,70.4,66.0,29.99,ESE,108,5.0,8.0,86,0.00,,,0.00,VWS V14.01,2013-08-30 03:31:00,
2013-08-29 23:32:00,70.4,66.0,29.99,ESE,119,1.0,8.0,86,0.00,,,0.00,VWS V14.01,2013-08-30 03:32:00,
2013-08-29 23:33:00,70.4,66.0,29.99,ESE,108,1.0,8.0,86,0.00,,,0.00,VWS V14.01,2013-08-30 03:33:00,
2013-08-29 23:36:00,70.4,66.0,29.99,ESE,111,2.0,7.0,86,0.00,,,0.00,VWS V14.01,2013-08-30 03:36:00,
2013-08-29 23:38:00,70.4,66.0,29.99,ESE,112,5.0,7.0,86,0.00,,,0.00,VWS V14.01,2013-08-30 03:38:00,
2013-08-29 23:40:00,70.4,66.0,29.99,ESE,117,6.0,8.0,86,0.00,,,0.00,VWS V14.01,2013-08-30 03:40:00,
2013-08-29 23:41:00,70.4,66.0,29.99,ESE,115,6.0,8.0,86,0.00,,,0.00,VWS V14.01,2013-08-30 03:41:00,
2013-08-29 23:42:00,70.4,66.0,29.99,ESE,117,6.0,8.0,86,0.00,,,0.00,VWS V14.01,2013-08-30 03:42:00,
2013-08-29 23:43:00,70.4,66.0,29.99,ESE,117,6.0,9.0,86,0.00,,,0.00,VWS V14.01,2013-08-30 03:43:00,
2013-08-29 23:46:00,70.4,66.0,29.99,SE,124,8.0,11.0,86,0.00,,,0.00,VWS V14.01,2013-08-30 03:46:00,
2013-08-29 23:47:00,70.4,65.7,29.99,SE,126,5.0,11.0,85,0.00,,,0.00,VWS V14.01,2013-08-30 03:47:00,
2013-08-29 23:48:00,70.4,65.7,29.99,ESE,114,6.0,11.0,85,0.00,,,0.00,VWS V14.01,2013-08-30 03:48:00,
2013-08-29 23:49:00,70.4,65.7,29.99,ESE,117,4.0,11.0,85,0.00,,,0.00,VWS V14.01,2013-08-30 03:49:00,
2013-08-29 23:54:00,70.4,65.7,29.98,ESE,114,4.0,11.0,85,0.00,,,0.00,VWS V14.01,2013-08-30 03:54:00,
2013-08-29 23:55:00,70.4,65.7,29.98,ESE,111,0.0,11.0,85,0.00,,,0.00,VWS V14.01,2013-08-30 03:55:00,
2013-08-29 23:57:00,70.4,65.7,29.98,East,89,6.0,11.0,85,0.00,,,0.00,VWS V14.01,2013-08-30 03:57:00,
2013-08-29 23:59:00,70.3,65.6,29.98,East,95,0.0,11.0,85,0.00,,,0.00,VWS V14.01,2013-08-30 03:59:00,